GFSSGP_500_temp_084.txt.gz
Temp
-7 -7 -7 -6 -6 -6 -6 -7 -7 -7 -8 -8 -8 -8 -8 -8 -7 -7 -6 -5 -5 -6 -6 -6 -6 -6 -6 -6 -5 -5 -6 -6 -5 -5 -5 -5 -5 -5 -5 -4 -5 -5 -5 -5 -5 -5 -5 -5 -5
-8 -8 -7 -7 -7 -6 -7 -8 -8 -7 -8 -9 -7 -8 -8 -8 -8 -7 -7 -6 -6 -6 -6 -6 -6 -6 -6 -6 -6 -6 -6 -6 -6 -5 -5 -5 -5 -5 -5 -5 -5 -5 -5 -5 -5 -5 -6 -6 -6
-8 -7 -7 -7 -7 -6 -8 -8 -8 -7 -8 -8 -9 -8 -8 -8 -8 -8 -7 -7 -6 -6 -6 -6 -6 -6 -6 -6 -6 -6 -6 -6 -6 -6 -6 -5 -5 -6 -6 -6 -5 -5 -6 -6 -6 -6 -6 -6 -6
-7 -8 -8 -7 -7 -7 -8 -9 -8 -8 -8 -8 -8 -9 -8 -8 -8 -7 -7 -7 -7 -7 -6 -7 -7 -6 -6 -7 -7 -7 -7 -6 -6 -6 -6 -6 -6 -6 -6 -6 -6 -6 -6 -6 -6 -6 -6 -7 -7
-8 -7 -8 -7 -7 -7 -8 -8 -8 -8 -8 -8 -7 -8 -9 -8 -8 -8 -8 -8 -7 -7 -7 -7 -7 -7 -6 -6 -7 -7 -7 -7 -7 -7 -6 -6 -6 -6 -6 -6 -6 -6 -6 -6 -6 -6 -7 -7 -7
-8 -8 -7 -7 -7 -8 -8 -8 -8 -9 -9 -8 -8 -7 -8 -8 -8 -8 -8 -8 -8 -8 -8 -8 -7 -7 -7 -7 -7 -7 -7 -7 -7 -7 -7 -7 -7 -7 -7 -7 -6 -6 -6 -6 -6 -7 -7 -8 -8
-8 -8 -7 -7 -7 -7 -8 -9 -9 -9 -10 -10 -9 -8 -8 -9 -8 -8 -7 -7 -8 -7 -8 -8 -8 -8 -8 -8 -7 -7 -7 -7 -8 -8 -8 -7 -7 -7 -7 -7 -7 -7 -7 -7 -7 -7 -8 -8 -8
-9 -8 -8 -8 -8 -7 -9 -9 -8 -9 -10 -10 -10 -8 -8 -9 -9 -8 -8 -7 -6 -7 -7 -8 -8 -8 -8 -8 -8 -8 -8 -8 -8 -8 -8 -8 -8 -8 -8 -8 -7 -7 -7 -7 -7 -7 -8 -9 -9
-9 -8 -8 -8 -8 -8 -9 -9 -8 -9 -9 -11 -10 -10 -9 -8 -8 -8 -8 -8 -7 -8 -7 -8 -8 -8 -9 -9 -9 -8 -8 -8 -8 -8 -8 -8 -8 -8 -8 -8 -8 -8 -8 -7 -8 -8 -8 -9 -9
-8 -8 -8 -9 -9 -9 -10 -10 -11 -10 -10 -10 -12 -11 -10 -10 -8 -9 -9 -8 -7 -8 -8 -8 -8 -8 -9 -9 -9 -9 -9 -9 -9 -8 -8 -8 -8 -9 -8 -9 -8 -8 -8 -8 -8 -8 -9 -9 -10
-9 -8 -9 -9 -9 -9 -9 -10 -11 -10 -10 -10 -11 -12 -12 -11 -11 -9 -9 -8 -7 -7 -9 -10 -9 -9 -9 -9 -9 -9 -9 -9 -9 -9 -9 -9 -9 -9 -9 -9 -9 -9 -9 -9 -8 -8 -9 -9 -10
-8 -8 -9 -9 -9 -9 -9 -11 -11 -10 -9 -10 -10 -11 -11 -10 -10 -10 -9 -8 -7 -7 -7 -8 -10 -10 -9 -9 -9 -9 -9 -9 -9 -9 -9 -9 -9 -9 -9 -10 -10 -9 -9 -9 -9 -9 -9 -9 -10
-9 -10 -9 -9 -9 -10 -10 -10 -10 -9 -10 -10 -10 -10 -10 -10 -9 -9 -10 -10 -9 -9 -9 -9 -9 -10 -9 -9 -9 -9 -9 -9 -9 -9 -9 -9 -9 -10 -10 -10 -10 -10 -10 -9 -9 -9 -9 -10 -10
-11 -10 -10 -10 -10 -10 -10 -10 -10 -9 -11 -11 -11 -11 -11 -11 -10 -10 -10 -10 -10 -10 -9 -10 -10 -10 -9 -10 -10 -9 -9 -9 -9 -9 -9 -9 -9 -9 -10 -10 -10 -10 -10 -9 -9 -10 -10 -10 -10
-11 -11 -11 -11 -11 -12 -13 -11 -9 -10 -12 -12 -13 -13 -13 -12 -12 -11 -11 -12 -11 -11 -10 -9 -10 -10 -10 -10 -10 -10 -9 -9 -9 -9 -10 -9 -9 -9 -9 -10 -10 -10 -10 -9 -9 -10 -10 -10 -10
-12 -12 -12 -13 -13 -13 -14 -10 -10 -12 -13 -12 -12 -12 -14 -13 -13 -12 -11 -11 -12 -12 -11 -10 -10 -10 -11 -10 -10 -11 -9 -10 -9 -9 -9 -10 -10 -10 -10 -10 -10 -11 -10 -10 -10 -10 -10 -10 -10
-13 -12 -12 -13 -14 -13 -13 -10 -11 -12 -12 -11 -11 -11 -12 -13 -13 -12 -12 -12 -11 -11 -12 -11 -11 -11 -11 -11 -11 -11 -8 -9 -9 -9 -9 -10 -10 -11 -11 -11 -11 -11 -11 -11 -10 -10 -10 -10 -10
-13 -13 -13 -13 -14 -13 -13 -12 -12 -12 -13 -11 -12 -12 -12 -13 -13 -13 -12 -12 -12 -12 -11 -12 -12 -12 -12 -12 -11 -10 -10 -9 -9 -9 -9 -9 -10 -11 -11 -11 -11 -11 -11 -11 -11 -10 -9 -9 -9
-13 -13 -13 -13 -13 -13 -13 -13 -13 -14 -12 -12 -12 -12 -12 -12 -12 -13 -13 -13 -12 -12 -12 -12 -12 -12 -12 -13 -11 -11 -11 -11 -10 -9 -9 -9 -9 -10 -11 -11 -11 -12 -11 -11 -11 -10 -9 -8 -8
-13 -13 -13 -13 -14 -14 -14 -13 -14 -15 -15 -13 -13 -13 -13 -14 -14 -13 -14 -13 -13 -12 -12 -12 -12 -12 -13 -14 -13 -12 -12 -12 -11 -10 -8 -9 -9 -9 -10 -11 -11 -11 -12 -11 -11 -10 -10 -9 -9
-13 -13 -13 -14 -14 -14 -14 -13 -14 -14 -14 -15 -14 -14 -14 -14 -15 -15 -14 -14 -14 -13 -12 -13 -12 -13 -12 -13 -13 -13 -13 -12 -12 -10 -11 -10 -8 -10 -10 -10 -11 -11 -11 -12 -11 -11 -10 -10 -10
-14 -14 -14 -14 -14 -14 -14 -12 -13 -14 -15 -16 -16 -16 -16 -16 -16 -15 -15 -14 -13 -14 -14 -13 -13 -13 -14 -13 -13 -14 -14 -13 -12 -12 -11 -11 -10 -10 -11 -10 -10 -9 -10 -11 -11 -11 -10 -9 -10
-14 -15 -14 -15 -15 -14 -14 -13 -12 -14 -14 -15 -15 -15 -15 -15 -15 -15 -16 -15 -14 -14 -13 -14 -14 -14 -14 -14 -13 -14 -14 -14 -13 -13 -12 -11 -11 -11 -11 -10 -10 -10 -10 -11 -10 -11 -9 -10 -10
-16 -15 -15 -15 -14 -13 -14 -14 -12 -15 -16 -16 -16 -16 -16 -15 -15 -15 -15 -15 -14 -14 -14 -15 -14 -14 -14 -14 -15 -14 -14 -14 -14 -14 -12 -13 -12 -12 -11 -11 -11 -11 -10 -10 -10 -10 -10 -9 -10
-16 -16 -16 -15 -15 -14 -16 -15 -14 -16 -17 -17 -17 -16 -17 -17 -17 -16 -16 -16 -15 -16 -16 -16 -15 -15 -15 -15 -15 -14 -14 -14 -14 -14 -13 -13 -13 -12 -11 -11 -12 -12 -11 -10 -10 -10 -10 -10 -9
-16 -17 -17 -16 -15 -15 -16 -16 -16 -16 -17 -18 -18 -17 -17 -17 -16 -16 -17 -17 -17 -17 -17 -16 -17 -16 -15 -15 -15 -14 -14 -14 -14 -14 -14 -13 -13 -13 -13 -11 -11 -11 -12 -11 -10 -10 -10 -10 -10
-17 -17 -17 -17 -18 -17 -17 -17 -17 -17 -17 -18 -18 -18 -18 -17 -17 -18 -17 -17 -18 -17 -17 -17 -17 -17 -16 -16 -15 -15 -15 -14 -14 -14 -14 -14 -14 -14 -12 -12 -11 -12 -13 -12 -11 -11 -10 -10 -10
-17 -17 -17 -18 -18 -18 -18 -18 -18 -17 -18 -18 -18 -18 -19 -18 -18 -17 -17 -17 -18 -18 -18 -18 -17 -16 -17 -17 -16 -15 -15 -15 -14 -14 -14 -14 -14 -13 -12 -12 -12 -13 -12 -11 -11 -10 -11 -10 -11
-17 -18 -18 -18 -19 -19 -19 -19 -20 -20 -19 -18 -19 -19 -19 -19 -19 -18 -18 -18 -18 -17 -17 -16 -16 -15 -16 -16 -16 -16 -15 -15 -15 -14 -14 -14 -14 -14 -14 -13 -12 -12 -12 -12 -12 -11 -11 -11 -11
-18 -18 -19 -20 -20 -21 -21 -20 -20 -20 -20 -19 -20 -19 -19 -19 -19 -19 -18 -19 -18 -17 -17 -17 -17 -16 -17 -17 -16 -16 -16 -15 -15 -15 -14 -14 -14 -14 -14 -15 -14 -12 -12 -11 -11 -12 -11 -11 -11

GFSSGP_500_temp_087.txt.gz
Temp
-7 -7 -6 -7 -7 -7 -7 -7 -7 -6 -7 -7 -8 -7 -7 -8 -8 -7 -7 -7 -6 -6 -5 -5 -5 -5 -5 -6 -6 -6 -6 -6 -6 -6 -5 -5 -5 -5 -5 -5 -5 -5 -5 -6 -6 -6 -6 -6 -6
-7 -7 -7 -7 -7 -6 -7 -8 -7 -7 -7 -7 -8 -8 -7 -8 -8 -8 -8 -7 -7 -6 -6 -6 -5 -5 -5 -5 -6 -6 -6 -6 -6 -6 -6 -6 -6 -6 -6 -5 -5 -5 -5 -6 -6 -6 -6 -6 -6
-8 -7 -7 -6 -7 -6 -8 -8 -8 -7 -7 -7 -7 -7 -8 -7 -8 -8 -8 -8 -7 -7 -7 -6 -6 -6 -5 -5 -6 -6 -6 -7 -7 -6 -6 -6 -6 -6 -6 -6 -6 -6 -6 -6 -6 -7 -7 -7 -6
-7 -7 -7 -6 -6 -8 -7 -9 -8 -8 -8 -7 -7 -7 -7 -7 -8 -8 -8 -8 -8 -8 -7 -7 -6 -6 -6 -6 -5 -6 -6 -7 -7 -7 -7 -6 -6 -6 -6 -6 -6 -6 -6 -6 -6 -7 -7 -7 -7
-7 -7 -7 -7 -6 -8 -8 -8 -9 -8 -8 -8 -7 -7 -7 -7 -8 -8 -8 -8 -8 -8 -8 -7 -7 -7 -6 -6 -6 -6 -6 -7 -7 -7 -7 -7 -7 -7 -7 -7 -7 -7 -6 -6 -7 -7 -7 -7 -7
-7 -8 -7 -7 -7 -8 -8 -8 -8 -9 -9 -8 -8 -7 -7 -8 -7 -8 -8 -8 -8 -8 -8 -8 -8 -8 -8 -7 -6 -7 -7 -7 -7 -7 -8 -8 -8 -7 -7 -7 -7 -7 -7 -7 -7 -7 -7 -7 -7
-8 -8 -7 -7 -7 -8 -9 -9 -8 -8 -9 -9 -9 -8 -8 -8 -8 -8 -9 -8 -8 -8 -8 -8 -8 -8 -8 -8 -8 -7 -8 -8 -8 -8 -8 -8 -8 -8 -8 -8 -8 -7 -7 -7 -7 -7 -8 -8 -8
-8 -8 -8 -7 -8 -8 -9 -8 -9 -8 -8 -10 -10 -9 -8 -8 -8 -8 -8 -9 -9 -8 -8 -8 -8 -8 -8 -8 -8 -8 -7 -8 -9 -8 -8 -8 -8 -8 -8 -8 -8 -8 -8 -8 -8 -8 -8 -8 -8
-9 -8 -8 -8 -9 -9 -9 -9 -9 -8 -7 -9 -9 -8 -9 -8 -8 -8 -7 -7 -8 -8 -8 -8 -8 -8 -9 -9 -9 -9 -8 -8 -8 -9 -9 -9 -9 -9 -9 -9 -8 -8 -8 -8 -8 -8 -8 -9 -9
-9 -8 -9 -10 -9 -9 -10 -9 -10 -9 -8 -8 -10 -10 -10 -9 -9 -9 -8 -7 -7 -7 -8 -8 -8 -8 -9 -9 -9 -9 -9 -8 -8 -9 -9 -9 -9 -9 -9 -9 -9 -9 -9 -9 -9 -9 -9 -9 -9
-9 -8 -9 -9 -9 -9 -10 -10 -11 -10 -9 -10 -10 -11 -10 -10 -9 -9 -8 -8 -8 -8 -8 -9 -9 -9 -9 -9 -9 -9 -9 -9 -9 -9 -9 -9 -9 -9 -9 -9 -9 -9 -10 -9 -9 -9 -9 -9 -9
-8 -8 -9 -10 -9 -9 -9 -10 -10 -9 -9 -10 -11 -11 -10 -10 -9 -9 -8 -8 -8 -8 -9 -9 -10 -10 -9 -9 -9 -10 -9 -9 -10 -9 -9 -9 -9 -9 -10 -9 -9 -10 -10 -10 -10 -9 -9 -9 -10
-9 -9 -9 -9 -10 -10 -10 -9 -10 -9 -9 -10 -10 -10 -10 -10 -10 -10 -10 -10 -9 -9 -8 -9 -9 -9 -9 -10 -10 -10 -10 -10 -10 -10 -10 -9 -10 -10 -10 -10 -10 -10 -10 -10 -10 -10 -9 -9 -10
-10 -9 -10 -10 -10 -11 -10 -10 -11 -10 -11 -11 -10 -10 -10 -10 -11 -11 -10 -10 -10 -11 -11 -10 -10 -9 -10 -10 -11 -11 -11 -10 -10 -10 -10 -10 -10 -10 -10 -10 -10 -10 -10 -10 -10 -10 -10 -10 -9
-11 -10 -10 -11 -12 -12 -12 -9 -9 -11 -12 -12 -12 -12 -12 -12 -12 -12 -12 -11 -10 -11 -12 -11 -10 -10 -10 -10 -11 -11 -11 -11 -10 -10 -10 -9 -10 -9 -9 -10 -10 -10 -10 -10 -10 -10 -10 -10 -10
-11 -11 -11 -12 -12 -12 -11 -9 -10 -11 -12 -11 -12 -11 -11 -11 -12 -12 -12 -12 -11 -10 -11 -12 -11 -11 -10 -10 -10 -11 -11 -9 -11 -10 -10 -10 -9 -10 -10 -10 -10 -11 -11 -11 -11 -10 -10 -10 -10
-12 -12 -12 -12 -13 -12 -11 -10 -10 -11 -12 -11 -11 -12 -12 -11 -12 -12 -13 -13 -13 -11 -11 -12 -12 -11 -11 -10 -11 -10 -11 -11 -9 -10 -10 -9 -9 -9 -10 -11 -11 -12 -12 -11 -11 -11 -11 -10 -10
-13 -12 -12 -12 -13 -12 -12 -11 -11 -12 -12 -11 -11 -12 -12 -12 -12 -12 -13 -14 -14 -14 -12 -11 -12 -12 -11 -11 -11 -10 -11 -11 -10 -10 -10 -10 -9 -9 -9 -10 -12 -12 -11 -12 -12 -12 -11 -11 -11
-12 -12 -12 -13 -13 -13 -12 -12 -12 -13 -12 -12 -12 -12 -12 -12 -13 -13 -13 -13 -13 -14 -14 -13 -13 -12 -13 -12 -12 -10 -10 -11 -11 -11 -11 -11 -10 -10 -10 -10 -10 -11 -12 -11 -12 -12 -12 -12 -11
-12 -12 -12 -13 -13 -13 -13 -13 -13 -13 -13 -13 -13 -13 -13 -13 -13 -13 -14 -14 -14 -13 -13 -13 -13 -13 -12 -13 -12 -12 -11 -11 -11 -11 -11 -11 -10 -10 -10 -10 -10 -10 -11 -11 -11 -12 -11 -12 -12
-13 -13 -13 -14 -14 -13 -13 -12 -13 -13 -14 -14 -14 -14 -14 -14 -14 -14 -13 -13 -13 -14 -14 -14 -13 -13 -13 -13 -13 -13 -12 -12 -12 -12 -12 -11 -11 -11 -11 -10 -10 -10 -10 -11 -11 -11 -11 -11 -12
-14 -14 -14 -14 -13 -13 -14 -11 -12 -13 -14 -14 -15 -15 -14 -14 -14 -13 -13 -13 -13 -13 -14 -13 -13 -13 -13 -14 -14 -13 -13 -13 -12 -12 -12 -12 -12 -12 -11 -10 -9 -10 -10 -10 -10 -11 -11 -11 -10
-14 -14 -14 -14 -14 -14 -13 -13 -12 -13 -14 -15 -15 -16 -15 -15 -15 -15 -15 -14 -14 -14 -13 -14 -14 -14 -14 -14 -15 -14 -14 -14 -13 -13 -13 -13 -12 -12 -11 -12 -12 -10 -10 -10 -10 -10 -11 -11 -10
-15 -14 -15 -15 -15 -15 -14 -14 -13 -14 -14 -15 -15 -15 -16 -16 -16 -16 -16 -15 -15 -15 -14 -14 -14 -15 -16 -16 -16 -15 -15 -14 -14 -14 -13 -14 -13 -12 -12 -12 -11 -12 -11 -11 -11 -11 -10 -10 -10
-16 -16 -16 -15 -16 -15 -15 -15 -13 -14 -15 -15 -15 -15 -16 -16 -16 -16 -16 -15 -15 -16 -15 -15 -16 -17 -17 -17 -17 -16 -16 -15 -15 -14 -14 -14 -15 -15 -14 -14 -13 -13 -13 -13 -12 -12 -11 -11 -10
-16 -16 -17 -16 -15 -14 -15 -14 -14 -16 -16 -17 -17 -16 -16 -16 -16 -17 -16 -16 -16 -16 -16 -17 -18 -18 -17 -18 -17 -17 -16 -15 -15 -14 -13 -13 -14 -15 -15 -14 -14 -14 -13 -12 -12 -12 -11 -11 -12
-16 -17 -17 -17 -16 -16 -15 -14 -14 -16 -17 -17 -17 -18 -18 -17 -17 -17 -17 -16 -17 -16 -16 -17 -18 -18 -18 -17 -18 -17 -16 -16 -15 -14 -14 -14 -14 -14 -15 -15 -14 -14 -13 -13 -13 -11 -12 -11 -11
-17 -17 -16 -17 -17 -17 -15 -15 -16 -17 -18 -18 -18 -19 -19 -19 -18 -17 -17 -17 -17 -18 -18 -18 -17 -17 -17 -18 -17 -17 -16 -15 -15 -15 -14 -14 -14 -15 -15 -15 -14 -14 -14 -13 -12 -12 -12 -12 -11
-17 -17 -17 -17 -18 -18 -17 -15 -17 -18 -18 -19 -20 -20 -20 -19 -19 -19 -19 -19 -17 -18 -18 -18 -18 -18 -17 -17 -18 -18 -17 -16 -15 -15 -15 -14 -14 -14 -14 -15 -15 -14 -14 -14 -13 -12 -11 -11 -12
-17 -17 -17 -18 -18 -19 -19 -15 -18 -20 -21 -21 -21 -20 -20 -20 -19 -19 -19 -19 -19 -19 -19 -18 -18 -18 -18 -17 -18 -18 -17 -17 -16 -15 -15 -15 -15 -15 -15 -15 -15 -14 -14 -14 -13 -12 -11 -11 -11

GFSSGP_500_temp_093.txt.gz
Temp
-7 -7 -7 -7 -7 -7 -7 -7 -6 -6 -7 -7 -7 -8 -8 -7 -7 -6 -6 -6 -5 -5 -5 -5 -5 -5 -6 -6 -5 -5 -6 -6 -6 -6 -6 -6 -6 -6 -6 -6 -6 -5 -5 -5 -5 -5 -5 -5 -5
-7 -8 -8 -7 -7 -7 -7 -7 -7 -6 -7 -7 -7 -8 -8 -8 -8 -7 -6 -6 -6 -5 -6 -5 -6 -6 -6 -6 -6 -6 -6 -6 -6 -6 -6 -6 -6 -6 -6 -6 -6 -6 -6 -6 -6 -6 -6 -5 -5
-8 -8 -8 -7 -7 -8 -8 -8 -7 -7 -7 -7 -7 -7 -8 -8 -7 -7 -7 -7 -6 -6 -5 -6 -6 -6 -6 -6 -6 -6 -6 -6 -7 -7 -7 -7 -7 -7 -7 -6 -6 -6 -6 -6 -6 -6 -6 -6 -6
-8 -7 -8 -7 -7 -8 -8 -8 -8 -7 -7 -7 -7 -7 -7 -8 -8 -8 -7 -7 -7 -6 -6 -6 -6 -6 -6 -7 -7 -7 -7 -7 -8 -8 -8 -7 -8 -7 -7 -7 -7 -7 -7 -7 -7 -7 -7 -7 -7
-8 -7 -7 -7 -7 -9 -9 -9 -8 -8 -8 -7 -7 -7 -7 -7 -8 -8 -8 -8 -7 -7 -7 -7 -7 -6 -7 -7 -7 -7 -7 -7 -8 -8 -8 -8 -8 -8 -8 -7 -7 -7 -7 -7 -7 -7 -7 -7 -7
-8 -7 -7 -7 -8 -9 -9 -9 -9 -8 -8 -8 -8 -7 -7 -7 -7 -8 -8 -8 -8 -7 -7 -8 -8 -8 -7 -7 -7 -7 -7 -7 -7 -8 -8 -9 -9 -8 -8 -8 -8 -8 -8 -8 -8 -8 -8 -8 -8
-7 -8 -8 -7 -7 -8 -9 -9 -10 -9 -8 -8 -8 -8 -8 -8 -8 -8 -8 -8 -9 -9 -8 -8 -8 -8 -8 -8 -8 -8 -7 -7 -7 -7 -8 -8 -9 -9 -8 -8 -8 -8 -8 -8 -8 -8 -8 -8 -8
-8 -8 -7 -7 -8 -8 -8 -8 -9 -10 -9 -8 -8 -8 -9 -9 -8 -8 -8 -8 -8 -9 -9 -9 -8 -9 -8 -8 -8 -8 -8 -8 -7 -7 -8 -8 -9 -9 -9 -9 -8 -8 -8 -8 -8 -8 -8 -9 -9
-8 -8 -8 -8 -8 -8 -8 -8 -8 -8 -8 -8 -8 -8 -8 -9 -9 -8 -8 -8 -8 -8 -9 -9 -9 -9 -9 -8 -8 -9 -8 -9 -8 -8 -8 -8 -9 -9 -9 -9 -9 -9 -9 -8 -8 -9 -9 -9 -9
-9 -9 -9 -9 -9 -9 -9 -8 -8 -7 -7 -8 -8 -7 -8 -8 -8 -9 -8 -9 -9 -8 -8 -9 -9 -9 -9 -9 -9 -9 -9 -9 -9 -9 -9 -9 -9 -9 -10 -9 -9 -9 -9 -9 -9 -9 -9 -9 -9
-9 -10 -9 -10 -9 -9 -9 -9 -9 -8 -7 -8 -8 -8 -7 -8 -8 -9 -9 -9 -9 -9 -9 -9 -9 -10 -9 -9 -9 -9 -9 -9 -9 -9 -10 -10 -10 -10 -10 -10 -10 -10 -10 -10 -10 -9 -9 -9 -9
-10 -10 -10 -10 -10 -9 -10 -10 -9 -9 -9 -10 -9 -9 -9 -8 -9 -10 -10 -10 -10 -10 -10 -9 -10 -10 -11 -10 -10 -10 -10 -9 -9 -10 -10 -10 -10 -10 -10 -10 -10 -10 -10 -10 -10 -10 -10 -9 -10
-9 -10 -10 -10 -10 -9 -9 -10 -10 -9 -9 -10 -10 -10 -9 -9 -10 -10 -10 -10 -9 -10 -10 -9 -10 -10 -11 -11 -10 -10 -11 -11 -11 -11 -11 -10 -9 -10 -10 -10 -10 -11 -10 -10 -10 -10 -10 -10 -10
-9 -9 -9 -10 -10 -9 -9 -9 -9 -9 -9 -10 -10 -10 -10 -10 -10 -10 -10 -10 -10 -10 -11 -10 -10 -11 -11 -12 -11 -10 -10 -10 -11 -11 -11 -12 -11 -9 -10 -11 -10 -11 -11 -11 -11 -11 -10 -10 -10
-10 -10 -10 -10 -10 -10 -10 -9 -10 -10 -9 -9 -9 -10 -10 -10 -10 -10 -10 -10 -10 -10 -10 -10 -10 -10 -11 -11 -11 -11 -11 -11 -11 -11 -11 -11 -11 -11 -9 -10 -11 -10 -10 -11 -11 -11 -11 -11 -11
-11 -10 -10 -10 -10 -10 -9 -9 -10 -10 -10 -10 -10 -10 -10 -10 -10 -10 -11 -11 -11 -10 -10 -11 -12 -11 -11 -11 -12 -12 -12 -11 -12 -11 -11 -10 -11 -11 -11 -10 -11 -13 -12 -11 -12 -11 -11 -11 -11
-11 -11 -10 -11 -11 -11 -10 -10 -11 -11 -10 -11 -11 -11 -11 -11 -11 -11 -11 -12 -12 -12 -12 -12 -12 -12 -11 -12 -12 -11 -12 -12 -12 -13 -12 -11 -11 -10 -11 -10 -11 -12 -13 -12 -12 -12 -11 -12 -11
-10 -11 -11 -11 -11 -11 -11 -11 -11 -11 -11 -11 -11 -12 -12 -12 -12 -12 -12 -12 -12 -12 -13 -13 -12 -12 -13 -12 -12 -12 -12 -12 -13 -13 -13 -13 -12 -11 -10 -11 -10 -11 -13 -12 -12 -12 -13 -12 -12
-11 -11 -11 -11 -11 -11 -11 -10 -11 -11 -11 -12 -12 -12 -12 -12 -12 -12 -13 -13 -12 -12 -12 -13 -13 -14 -13 -13 -12 -12 -12 -13 -13 -14 -13 -13 -12 -11 -12 -10 -11 -10 -11 -12 -12 -11 -11 -12 -12
-11 -11 -11 -11 -11 -11 -11 -10 -11 -11 -11 -11 -11 -12 -12 -12 -13 -12 -12 -12 -12 -13 -13 -13 -13 -13 -14 -14 -13 -12 -12 -12 -13 -13 -13 -12 -12 -12 -12 -11 -9 -11 -11 -11 -11 -10 -12 -12 -13
-12 -12 -12 -11 -12 -12 -11 -11 -12 -12 -12 -12 -12 -12 -12 -12 -12 -12 -12 -13 -13 -13 -13 -13 -13 -13 -14 -14 -15 -14 -13 -12 -13 -12 -12 -12 -12 -12 -12 -12 -11 -10 -11 -11 -10 -11 -11 -11 -11
-12 -13 -12 -12 -12 -12 -12 -12 -12 -12 -12 -13 -13 -13 -12 -12 -12 -12 -12 -13 -13 -13 -13 -13 -14 -14 -14 -14 -15 -15 -15 -14 -13 -13 -13 -12 -12 -12 -11 -12 -12 -12 -12 -11 -11 -11 -11 -11 -11
-13 -13 -13 -13 -13 -12 -12 -12 -12 -12 -13 -13 -13 -14 -14 -13 -12 -12 -12 -12 -12 -13 -13 -13 -14 -14 -14 -15 -15 -16 -16 -15 -14 -14 -13 -13 -13 -13 -12 -12 -12 -12 -12 -11 -11 -12 -12 -12 -11
-13 -14 -14 -13 -13 -12 -13 -13 -12 -13 -13 -13 -13 -13 -13 -14 -13 -13 -13 -13 -13 -13 -13 -13 -13 -14 -14 -15 -15 -16 -16 -16 -15 -15 -14 -14 -14 -13 -13 -13 -13 -13 -13 -12 -12 -12 -12 -12 -11
-14 -14 -14 -13 -13 -13 -13 -12 -12 -13 -14 -14 -14 -14 -13 -13 -14 -14 -14 -14 -14 -14 -14 -14 -14 -14 -14 -14 -14 -15 -15 -16 -16 -16 -16 -15 -15 -14 -14 -14 -13 -13 -13 -13 -13 -12 -13 -13 -11
-15 -15 -15 -14 -14 -13 -13 -11 -13 -13 -14 -14 -14 -13 -14 -15 -14 -14 -14 -14 -15 -15 -15 -15 -15 -15 -15 -15 -15 -15 -15 -15 -16 -16 -17 -16 -15 -15 -14 -15 -14 -13 -13 -13 -13 -13 -13 -13 -12
-14 -14 -15 -14 -14 -13 -12 -12 -12 -13 -14 -14 -14 -14 -14 -14 -13 -14 -14 -15 -15 -15 -15 -16 -16 -16 -15 -16 -15 -16 -16 -16 -17 -17 -18 -18 -16 -16 -15 -14 -14 -14 -14 -13 -13 -13 -13 -13 -14
-15 -15 -14 -15 -13 -13 -12 -12 -12 -13 -14 -14 -15 -15 -14 -14 -14 -14 -14 -14 -15 -15 -15 -15 -16 -16 -16 -16 -16 -17 -17 -18 -18 -18 -18 -18 -18 -17 -16 -16 -15 -14 -14 -14 -13 -14 -14 -13 -14
-15 -14 -14 -15 -14 -14 -13 -13 -13 -14 -15 -16 -15 -15 -15 -15 -15 -16 -16 -16 -16 -17 -17 -17 -16 -17 -17 -18 -17 -17 -17 -18 -18 -18 -18 -18 -18 -17 -17 -17 -17 -16 -15 -14 -14 -13 -14 -14 -13
-15 -15 -16 -16 -15 -15 -15 -13 -15 -16 -17 -16 -16 -16 -17 -17 -18 -18 -18 -17 -17 -18 -19 -19 -19 -19 -19 -18 -18 -18 -18 -18 -18 -18 -18 -17 -17 -17 -17 -17 -17 -16 -16 -15 -15 -14 -14 -15 -14

GFSSGP_500_temp_096.txt.gz
Temp
-7 -6 -7 -7 -7 -7 -7 -6 -6 -6 -6 -7 -7 -7 -7 -7 -7 -7 -6 -6 -6 -5 -5 -5 -5 -5 -5 -5 -5 -5 -5 -5 -5 -5 -5 -5 -5 -5 -5 -6 -6 -6 -5 -5 -5 -5 -5 -5 -6
-8 -7 -7 -7 -7 -7 -8 -6 -7 -6 -6 -7 -7 -7 -7 -7 -7 -7 -6 -7 -6 -6 -5 -5 -5 -6 -6 -5 -5 -5 -5 -5 -6 -5 -6 -6 -6 -6 -6 -6 -6 -6 -6 -6 -6 -6 -6 -6 -6
-7 -7 -8 -7 -7 -7 -8 -7 -7 -6 -6 -6 -6 -7 -7 -7 -7 -7 -7 -7 -7 -6 -6 -5 -5 -6 -6 -5 -6 -6 -6 -6 -6 -7 -7 -6 -6 -7 -7 -7 -7 -7 -7 -7 -7 -6 -6 -6 -6
-7 -7 -7 -7 -8 -8 -7 -7 -7 -7 -7 -6 -6 -7 -7 -7 -7 -8 -7 -7 -7 -7 -7 -7 -6 -6 -6 -6 -6 -6 -6 -6 -6 -6 -7 -7 -7 -7 -7 -7 -7 -7 -7 -7 -7 -7 -7 -7 -7
-7 -7 -7 -7 -8 -7 -8 -8 -8 -8 -7 -7 -7 -6 -7 -7 -7 -7 -8 -7 -7 -7 -7 -7 -6 -6 -6 -6 -6 -6 -6 -6 -6 -6 -7 -7 -7 -7 -8 -8 -7 -7 -8 -7 -8 -8 -8 -8 -7
-8 -7 -7 -7 -7 -8 -9 -8 -8 -8 -8 -7 -7 -7 -7 -7 -7 -7 -7 -8 -8 -7 -7 -7 -7 -7 -6 -6 -6 -6 -7 -7 -7 -7 -7 -7 -7 -7 -8 -8 -8 -8 -8 -8 -8 -8 -8 -8 -8
-8 -7 -7 -7 -7 -8 -9 -9 -9 -8 -8 -8 -8 -8 -8 -7 -7 -7 -7 -8 -8 -8 -8 -7 -7 -8 -7 -7 -7 -7 -7 -7 -7 -7 -7 -8 -8 -7 -8 -8 -8 -8 -8 -8 -8 -8 -8 -8 -8
-8 -7 -8 -7 -7 -8 -8 -8 -9 -8 -8 -8 -8 -8 -9 -8 -8 -8 -8 -8 -8 -8 -8 -8 -8 -8 -8 -8 -8 -8 -8 -8 -8 -8 -8 -8 -8 -8 -8 -8 -8 -8 -8 -8 -8 -8 -9 -9 -9
-8 -8 -8 -8 -8 -8 -8 -8 -8 -8 -8 -8 -8 -8 -8 -8 -8 -8 -9 -8 -9 -9 -9 -9 -9 -9 -9 -9 -9 -9 -8 -8 -8 -8 -8 -8 -8 -8 -8 -9 -9 -9 -8 -8 -9 -9 -9 -9 -9
-9 -8 -9 -8 -9 -8 -8 -7 -7 -7 -8 -7 -7 -7 -8 -7 -7 -8 -8 -8 -9 -9 -9 -8 -9 -9 -9 -9 -9 -9 -9 -9 -9 -9 -9 -9 -9 -9 -9 -9 -9 -9 -9 -9 -9 -9 -9 -9 -9
-9 -9 -9 -9 -9 -9 -8 -8 -8 -8 -8 -8 -8 -8 -8 -9 -9 -9 -8 -9 -9 -8 -9 -9 -9 -9 -9 -9 -9 -9 -9 -9 -9 -9 -9 -10 -10 -10 -10 -9 -10 -10 -10 -9 -9 -9 -9 -9 -9
-9 -9 -9 -9 -9 -9 -9 -9 -9 -8 -8 -9 -9 -9 -8 -8 -9 -10 -10 -10 -9 -9 -9 -9 -9 -10 -10 -10 -10 -9 -11 -10 -10 -10 -10 -10 -10 -9 -10 -10 -10 -10 -10 -10 -10 -10 -10 -10 -10
-10 -10 -9 -9 -9 -9 -9 -9 -9 -8 -8 -9 -9 -9 -9 -9 -9 -10 -10 -10 -10 -10 -10 -10 -10 -10 -11 -11 -11 -11 -11 -11 -11 -11 -11 -11 -11 -10 -10 -10 -11 -10 -10 -10 -10 -10 -10 -10 -10
-9 -10 -10 -10 -10 -9 -9 -9 -9 -9 -9 -9 -9 -9 -9 -9 -9 -9 -10 -10 -10 -10 -10 -10 -10 -10 -10 -11 -11 -11 -11 -11 -11 -11 -11 -11 -11 -11 -10 -10 -11 -11 -11 -10 -10 -10 -10 -10 -10
-10 -10 -10 -10 -10 -9 -9 -9 -9 -10 -9 -9 -9 -9 -9 -9 -9 -9 -9 -9 -10 -9 -10 -10 -10 -10 -10 -10 -11 -11 -12 -12 -11 -11 -11 -11 -11 -11 -11 -10 -10 -10 -11 -12 -11 -11 -11 -11 -11
-10 -10 -10 -10 -10 -10 -10 -10 -10 -10 -10 -9 -10 -10 -9 -9 -9 -9 -9 -9 -9 -10 -10 -10 -10 -10 -11 -11 -12 -12 -12 -12 -12 -11 -11 -12 -11 -11 -11 -11 -11 -10 -10 -12 -13 -12 -12 -11 -11
-11 -11 -11 -11 -11 -11 -11 -11 -11 -11 -11 -10 -10 -10 -10 -10 -10 -10 -10 -10 -10 -10 -10 -10 -10 -11 -11 -12 -11 -11 -12 -12 -12 -12 -12 -12 -12 -11 -10 -11 -11 -11 -11 -12 -12 -12 -12 -12 -12
-11 -11 -11 -11 -11 -11 -11 -11 -11 -11 -11 -11 -11 -11 -11 -11 -11 -11 -11 -11 -11 -12 -11 -11 -11 -11 -12 -12 -12 -12 -12 -12 -12 -13 -12 -12 -13 -12 -11 -11 -11 -12 -11 -11 -11 -13 -12 -11 -10
-11 -11 -11 -11 -11 -10 -11 -10 -10 -11 -11 -11 -11 -11 -11 -12 -12 -11 -11 -11 -11 -11 -12 -12 -12 -12 -13 -13 -12 -12 -11 -12 -12 -12 -13 -13 -13 -13 -13 -11 -12 -12 -10 -11 -11 -12 -11 -12 -12
-11 -11 -11 -11 -11 -10 -11 -10 -10 -11 -11 -11 -11 -11 -11 -12 -12 -12 -11 -12 -12 -12 -12 -12 -12 -13 -13 -14 -14 -13 -12 -12 -12 -12 -12 -13 -13 -13 -13 -13 -13 -12 -12 -12 -11 -11 -11 -11 -12
-11 -11 -11 -11 -11 -11 -11 -11 -11 -11 -11 -11 -11 -11 -11 -11 -11 -11 -12 -12 -12 -12 -12 -12 -12 -12 -13 -13 -13 -14 -14 -13 -12 -12 -13 -13 -14 -14 -14 -13 -13 -13 -13 -12 -12 -12 -12 -11 -11
-12 -12 -12 -12 -12 -12 -12 -11 -11 -12 -11 -12 -12 -12 -11 -11 -11 -11 -12 -12 -12 -12 -12 -13 -13 -13 -13 -13 -13 -13 -14 -14 -14 -14 -14 -14 -14 -14 -13 -13 -13 -13 -12 -12 -12 -13 -13 -12 -11
-12 -12 -12 -12 -12 -12 -12 -12 -11 -11 -12 -12 -12 -12 -11 -11 -11 -11 -11 -11 -12 -12 -12 -12 -13 -13 -14 -14 -14 -14 -14 -14 -14 -14 -14 -14 -14 -14 -14 -13 -13 -13 -13 -12 -13 -13 -13 -12 -12
-13 -13 -13 -13 -13 -12 -12 -12 -12 -12 -12 -12 -12 -12 -12 -12 -12 -12 -12 -12 -12 -12 -12 -12 -13 -13 -13 -14 -14 -14 -14 -14 -15 -15 -15 -15 -15 -15 -14 -13 -13 -13 -13 -12 -13 -13 -12 -12 -11
-14 -14 -14 -14 -15 -14 -15 -13 -12 -13 -12 -13 -13 -13 -12 -12 -12 -12 -12 -12 -12 -12 -12 -12 -13 -13 -13 -13 -14 -14 -14 -15 -15 -16 -16 -16 -16 -15 -15 -14 -14 -14 -14 -14 -13 -13 -12 -12 -12
-16 -17 -16 -16 -16 -16 -16 -14 -15 -12 -12 -13 -13 -13 -13 -13 -13 -13 -13 -12 -13 -13 -14 -14 -13 -13 -13 -14 -14 -14 -14 -15 -15 -15 -16 -16 -16 -16 -15 -15 -14 -14 -14 -14 -14 -13 -13 -13 -12
-15 -15 -15 -15 -14 -14 -14 -13 -13 -13 -12 -13 -13 -13 -13 -13 -13 -13 -14 -14 -14 -13 -13 -14 -14 -14 -14 -14 -14 -15 -15 -15 -15 -16 -16 -16 -16 -16 -16 -16 -15 -15 -14 -14 -14 -14 -14 -14 -14
-15 -15 -15 -15 -14 -14 -14 -14 -14 -13 -13 -13 -13 -13 -13 -13 -13 -13 -13 -13 -14 -14 -14 -14 -14 -15 -15 -15 -15 -15 -15 -15 -15 -16 -16 -16 -16 -17 -17 -16 -16 -16 -15 -15 -14 -14 -14 -13 -14
-16 -15 -15 -15 -15 -14 -13 -13 -14 -14 -15 -14 -14 -13 -13 -14 -14 -14 -14 -14 -15 -16 -16 -16 -16 -15 -15 -15 -16 -16 -16 -16 -17 -17 -17 -17 -17 -17 -17 -17 -17 -16 -16 -16 -16 -15 -15 -14 -14
-16 -16 -16 -16 -14 -14 -14 -12 -14 -15 -15 -15 -15 -14 -14 -15 -15 -15 -16 -16 -17 -17 -18 -17 -17 -17 -17 -16 -17 -17 -17 -17 -18 -18 -18 -18 -17 -17 -18 -18 -18 -18 -17 -17 -16 -15 -15 -15 -15

GFSSGP_500_temp_102.txt.gz
Temp
-7 -6 -6 -6 -6 -6 -6 -6 -7 -7 -7 -6 -5 -5 -5 -7 -6 -5 -5 -5 -6 -5 -5 -5 -5 -5 -5 -5 -4 -4 -4 -4 -4 -4 -3 -3 -3 -3 -4 -4 -4 -5 -5 -5 -5 -5 -5 -6 -6
-7 -7 -6 -7 -6 -6 -6 -7 -7 -7 -8 -4 -5 -6 -7 -7 -6 -6 -6 -6 -6 -6 -6 -6 -6 -6 -5 -5 -5 -5 -5 -5 -5 -5 -4 -4 -4 -3 -3 -4 -4 -4 -5 -5 -6 -6 -6 -6 -6
-7 -7 -7 -7 -6 -6 -7 -7 -7 -8 -7 -6 -6 -6 -6 -5 -5 -5 -6 -6 -6 -6 -6 -6 -5 -6 -6 -6 -6 -5 -5 -5 -5 -5 -5 -5 -5 -5 -4 -4 -4 -5 -5 -6 -6 -6 -7 -7 -7
-8 -8 -7 -7 -6 -6 -7 -8 -7 -8 -7 -6 -6 -6 -6 -6 -5 -6 -6 -7 -6 -6 -6 -6 -6 -6 -6 -5 -6 -6 -5 -5 -5 -5 -5 -5 -5 -5 -5 -5 -5 -5 -5 -6 -6 -7 -7 -7 -7
-8 -8 -7 -7 -7 -7 -8 -8 -8 -8 -9 -9 -6 -8 -6 -6 -6 -6 -6 -6 -6 -6 -6 -6 -6 -6 -6 -6 -6 -6 -6 -6 -6 -6 -6 -6 -6 -6 -6 -5 -5 -5 -6 -6 -6 -7 -7 -7 -8
-8 -8 -8 -7 -7 -8 -8 -9 -8 -8 -8 -9 -7 -7 -7 -6 -6 -6 -6 -7 -6 -6 -7 -7 -7 -6 -6 -6 -6 -6 -6 -6 -6 -6 -6 -6 -7 -7 -6 -6 -6 -6 -6 -6 -6 -7 -7 -7 -8
-8 -8 -8 -8 -8 -8 -10 -9 -9 -8 -8 -9 -9 -8 -7 -6 -5 -6 -7 -7 -7 -7 -7 -7 -7 -7 -7 -7 -7 -6 -7 -7 -7 -6 -6 -6 -7 -7 -7 -7 -7 -7 -7 -7 -7 -7 -7 -7 -8
-8 -8 -8 -8 -8 -8 -10 -11 -10 -8 -8 -9 -9 -8 -7 -6 -6 -7 -7 -7 -7 -7 -7 -7 -7 -7 -7 -7 -7 -7 -7 -7 -7 -7 -7 -7 -7 -7 -8 -7 -7 -7 -8 -8 -7 -7 -8 -8 -8
-8 -8 -8 -8 -8 -8 -9 -11 -11 -8 -8 -9 -7 -7 -8 -7 -8 -7 -7 -8 -8 -7 -7 -7 -7 -8 -8 -8 -8 -8 -8 -8 -8 -8 -8 -8 -8 -8 -8 -8 -8 -8 -8 -8 -8 -8 -8 -8 -8
-8 -8 -8 -8 -8 -8 -9 -10 -10 -9 -7 -7 -8 -7 -8 -9 -8 -8 -9 -9 -8 -8 -7 -8 -8 -8 -8 -8 -9 -9 -9 -9 -9 -9 -9 -9 -9 -9 -9 -9 -9 -8 -8 -9 -9 -9 -9 -9 -8
-9 -8 -8 -9 -9 -8 -8 -8 -7 -8 -7 -7 -8 -8 -8 -8 -8 -9 -8 -8 -8 -8 -8 -8 -8 -9 -9 -9 -9 -9 -9 -9 -9 -9 -9 -9 -9 -9 -9 -9 -9 -9 -9 -9 -9 -9 -9 -9 -9
-8 -8 -9 -9 -9 -8 -8 -8 -8 -8 -8 -8 -7 -7 -7 -7 -8 -8 -8 -8 -9 -9 -9 -6 -8 -8 -9 -9 -10 -10 -10 -10 -9 -10 -10 -10 -10 -10 -10 -10 -10 -10 -10 -10 -10 -10 -10 -9 -9
-9 -9 -9 -9 -9 -8 -8 -8 -8 -8 -8 -8 -8 -8 -8 -8 -8 -8 -8 -9 -9 -8 -9 -8 -7 -7 -10 -10 -10 -10 -10 -11 -10 -10 -10 -10 -10 -11 -10 -10 -9 -10 -10 -10 -10 -10 -10 -10 -10
-9 -9 -9 -8 -8 -9 -8 -9 -9 -9 -9 -8 -8 -9 -8 -8 -8 -9 -9 -8 -9 -9 -9 -8 -7 -7 -10 -11 -9 -10 -10 -11 -11 -10 -11 -11 -11 -11 -10 -10 -11 -10 -10 -10 -11 -10 -10 -10 -10
-9 -9 -9 -9 -9 -9 -9 -8 -8 -9 -9 -8 -8 -8 -8 -8 -9 -8 -9 -9 -9 -9 -10 -9 -7 -7 -10 -9 -10 -10 -10 -10 -10 -10 -12 -11 -11 -11 -11 -11 -11 -11 -11 -10 -10 -10 -10 -10 -10
-10 -10 -9 -10 -10 -10 -9 -8 -9 -10 -9 -8 -8 -9 -8 -8 -8 -9 -9 -9 -9 -8 -9 -10 -9 -7 -8 -10 -10 -10 -10 -10 -10 -10 -10 -11 -11 -11 -11 -11 -11 -12 -11 -11 -11 -10 -10 -10 -11
-10 -10 -10 -10 -11 -11 -9 -9 -10 -10 -9 -9 -9 -8 -8 -8 -8 -9 -9 -9 -8 -8 -8 -9 -9 -10 -9 -10 -10 -10 -10 -10 -10 -10 -10 -10 -11 -12 -11 -11 -12 -11 -11 -11 -10 -11 -11 -10 -11
-11 -11 -11 -11 -13 -12 -10 -10 -10 -10 -9 -9 -10 -9 -9 -9 -9 -9 -9 -9 -9 -8 -8 -9 -8 -9 -10 -9 -10 -10 -10 -10 -11 -11 -11 -11 -11 -13 -12 -12 -12 -12 -11 -12 -11 -11 -10 -11 -11
-12 -13 -13 -14 -13 -14 -13 -10 -11 -11 -11 -10 -10 -10 -10 -10 -11 -11 -10 -10 -10 -9 -9 -9 -9 -9 -9 -10 -9 -9 -10 -10 -10 -11 -12 -12 -11 -11 -13 -13 -13 -12 -12 -12 -12 -11 -11 -12 -11
-12 -12 -11 -11 -12 -12 -12 -11 -10 -11 -11 -11 -11 -11 -11 -11 -10 -10 -10 -10 -8 -8 -10 -10 -10 -10 -10 -10 -10 -10 -10 -10 -11 -11 -11 -12 -12 -11 -13 -13 -13 -13 -12 -13 -12 -12 -12 -11 -12
-12 -11 -11 -12 -12 -12 -14 -11 -11 -11 -11 -11 -10 -10 -11 -11 -11 -11 -11 -10 -9 -9 -10 -11 -10 -10 -10 -10 -11 -11 -11 -11 -11 -11 -11 -11 -12 -11 -12 -13 -13 -12 -12 -12 -12 -12 -12 -12 -12
-12 -12 -12 -12 -12 -12 -13 -12 -12 -13 -13 -12 -10 -10 -11 -11 -11 -11 -10 -10 -9 -10 -10 -10 -10 -10 -11 -11 -11 -11 -11 -11 -12 -12 -12 -12 -12 -11 -11 -12 -13 -13 -12 -12 -11 -12 -12 -12 -11
-13 -13 -13 -14 -13 -12 -12 -12 -12 -12 -12 -13 -13 -13 -11 -10 -10 -11 -10 -11 -10 -10 -10 -10 -10 -11 -11 -11 -11 -11 -11 -12 -12 -12 -12 -13 -11 -9 -10 -11 -12 -11 -11 -11 -11 -12 -12 -13 -13
-13 -13 -13 -13 -13 -12 -12 -12 -12 -12 -13 -13 -14 -13 -14 -10 -9 -10 -11 -11 -10 -10 -10 -10 -9 -10 -11 -11 -12 -12 -12 -12 -12 -12 -12 -12 -12 -10 -12 -12 -13 -11 -10 -11 -12 -12 -12 -12 -12
-15 -14 -14 -14 -14 -12 -13 -14 -13 -13 -13 -13 -13 -13 -13 -12 -11 -12 -12 -11 -11 -10 -10 -9 -10 -10 -9 -10 -10 -11 -11 -12 -12 -12 -13 -13 -13 -12 -9 -10 -10 -11 -13 -13 -13 -13 -13 -12 -12
-15 -16 -16 -15 -15 -15 -14 -14 -13 -13 -13 -13 -13 -14 -13 -13 -13 -13 -11 -12 -11 -10 -10 -10 -10 -10 -10 -10 -11 -11 -11 -11 -12 -12 -13 -13 -13 -13 -11 -8 -9 -11 -15 -14 -13 -13 -13 -13 -12
-16 -16 -16 -16 -15 -14 -13 -13 -13 -13 -13 -14 -14 -14 -14 -13 -13 -13 -13 -12 -11 -11 -10 -10 -11 -11 -11 -11 -11 -11 -11 -12 -12 -12 -12 -13 -13 -13 -13 -10 -10 -11 -11 -13 -15 -13 -13 -13 -13
-15 -15 -15 -15 -15 -15 -14 -15 -15 -14 -14 -14 -14 -14 -13 -13 -13 -13 -13 -12 -12 -11 -11 -11 -11 -11 -12 -12 -11 -11 -12 -12 -12 -12 -12 -13 -13 -14 -14 -13 -12 -11 -12 -12 -14 -15 -14 -13 -13
-15 -15 -15 -15 -15 -15 -15 -15 -14 -14 -14 -14 -14 -14 -14 -15 -15 -14 -11 -11 -12 -12 -12 -12 -11 -12 -12 -12 -12 -12 -12 -12 -13 -13 -13 -13 -14 -15 -14 -14 -14 -14 -13 -13 -14 -13 -13 -12 -12
-15 -15 -16 -16 -15 -15 -15 -13 -15 -15 -15 -15 -15 -15 -15 -15 -14 -14 -13 -12 -12 -13 -13 -13 -12 -12 -12 -12 -13 -13 -14 -14 -14 -15 -15 -14 -14 -15 -15 -15 -15 -15 -14 -13 -13 -14 -12 -13 -13

GFSSGP_500_temp_105.txt.gz
Temp
-7 -7 -7 -6 -6 -6 -6 -7 -8 -7 -7 -7 -6 -6 -6 -6 -4 -5 -5 -6 -5 -5 -5 -5 -5 -5 -5 -5 -5 -5 -5 -5 -5 -5 -4 -4 -4 -3 -3 -3 -3 -3 -4 -4 -4 -5 -5 -5 -5
-7 -7 -6 -6 -6 -5 -6 -8 -8 -7 -8 -7 -8 -8 -7 -6 -5 -5 -6 -6 -6 -5 -5 -5 -5 -6 -6 -6 -5 -5 -5 -5 -5 -5 -5 -5 -4 -4 -4 -4 -4 -4 -4 -4 -4 -5 -5 -5 -5
-8 -7 -7 -6 -6 -6 -7 -6 -7 -7 -7 -8 -7 -7 -7 -5 -4 -5 -6 -7 -6 -6 -6 -6 -6 -5 -5 -5 -6 -6 -6 -6 -6 -6 -6 -5 -5 -5 -5 -4 -4 -4 -5 -5 -5 -5 -6 -6 -6
-9 -8 -7 -6 -6 -6 -7 -6 -8 -7 -7 -8 -8 -7 -6 -5 -5 -5 -6 -7 -6 -6 -6 -6 -6 -6 -6 -6 -6 -6 -6 -6 -6 -6 -6 -6 -6 -6 -5 -5 -5 -5 -5 -5 -5 -5 -6 -6 -6
-9 -9 -8 -7 -6 -8 -8 -8 -7 -8 -8 -7 -8 -7 -6 -6 -5 -4 -5 -6 -7 -6 -6 -6 -6 -6 -6 -6 -6 -6 -6 -6 -6 -6 -6 -6 -6 -6 -6 -6 -6 -6 -6 -5 -6 -6 -5 -6 -6
-9 -9 -8 -7 -7 -8 -8 -9 -8 -8 -8 -9 -9 -7 -7 -5 -5 -5 -5 -5 -6 -7 -6 -6 -6 -6 -6 -6 -6 -6 -6 -6 -6 -6 -6 -6 -7 -7 -7 -7 -7 -6 -6 -6 -6 -6 -6 -6 -7
-9 -9 -8 -8 -8 -9 -8 -8 -10 -9 -9 -9 -8 -8 -6 -5 -5 -6 -6 -5 -6 -7 -7 -7 -7 -6 -7 -6 -6 -6 -7 -7 -7 -7 -7 -7 -7 -7 -7 -7 -7 -7 -7 -7 -7 -7 -7 -7 -7
-9 -9 -8 -8 -8 -8 -9 -10 -11 -11 -11 -10 -10 -9 -8 -7 -6 -6 -6 -7 -7 -7 -7 -7 -7 -7 -7 -7 -7 -7 -7 -7 -7 -8 -8 -8 -8 -8 -7 -8 -8 -8 -8 -8 -8 -8 -8 -8 -8
-9 -8 -8 -8 -8 -8 -10 -10 -9 -11 -11 -10 -9 -9 -7 -7 -7 -7 -7 -7 -7 -8 -8 -8 -8 -8 -8 -8 -8 -8 -8 -8 -8 -8 -8 -8 -8 -9 -9 -9 -8 -8 -8 -8 -8 -8 -8 -8 -8
-8 -8 -8 -8 -8 -8 -10 -10 -10 -10 -10 -8 -8 -8 -8 -8 -8 -8 -8 -8 -7 -7 -8 -9 -9 -9 -9 -9 -9 -9 -9 -9 -9 -9 -9 -9 -9 -9 -9 -9 -9 -9 -9 -9 -9 -9 -9 -8 -8
-8 -8 -8 -8 -8 -8 -9 -8 -9 -9 -8 -7 -7 -7 -8 -8 -8 -8 -8 -8 -8 -8 -8 -8 -10 -9 -9 -8 -9 -9 -9 -9 -9 -9 -9 -9 -9 -9 -10 -9 -10 -10 -10 -9 -9 -9 -9 -9 -9
-8 -8 -8 -9 -9 -8 -8 -7 -8 -8 -8 -8 -8 -7 -7 -8 -8 -8 -7 -7 -8 -8 -8 -7 -7 -8 -9 -8 -8 -9 -10 -10 -10 -10 -10 -10 -9 -10 -10 -9 -10 -10 -10 -10 -10 -10 -10 -10 -9
-8 -9 -9 -9 -9 -8 -8 -7 -8 -8 -8 -8 -8 -8 -8 -7 -8 -8 -8 -8 -9 -8 -8 -7 -7 -7 -7 -8 -8 -8 -9 -10 -10 -10 -10 -10 -9 -10 -10 -10 -10 -9 -10 -10 -10 -10 -10 -10 -10
-9 -9 -9 -9 -9 -8 -8 -7 -8 -8 -8 -8 -7 -8 -8 -8 -8 -8 -8 -8 -9 -9 -8 -8 -7 -7 -7 -8 -8 -10 -11 -10 -10 -10 -10 -10 -10 -9 -10 -10 -10 -10 -10 -10 -10 -10 -10 -10 -10
-9 -9 -8 -8 -8 -9 -9 -8 -8 -8 -8 -8 -8 -7 -8 -9 -8 -8 -8 -9 -9 -9 -9 -8 -8 -8 -7 -7 -9 -8 -10 -11 -10 -10 -11 -11 -11 -11 -10 -11 -11 -11 -11 -10 -10 -10 -10 -10 -10
-9 -9 -9 -9 -10 -10 -9 -8 -9 -9 -9 -8 -8 -8 -8 -9 -9 -8 -8 -9 -9 -9 -9 -8 -8 -8 -7 -8 -9 -9 -10 -10 -10 -10 -10 -11 -11 -11 -11 -10 -10 -11 -10 -10 -10 -10 -10 -10 -10
-10 -10 -10 -10 -10 -10 -10 -9 -9 -9 -9 -8 -9 -8 -8 -8 -8 -8 -9 -9 -9 -9 -9 -9 -9 -9 -9 -10 -10 -10 -9 -9 -9 -9 -9 -10 -10 -11 -10 -9 -10 -10 -9 -9 -10 -10 -10 -11 -11
-10 -10 -11 -11 -12 -12 -10 -9 -9 -10 -9 -9 -9 -9 -9 -9 -9 -9 -9 -9 -8 -8 -8 -9 -9 -9 -9 -9 -9 -10 -10 -10 -9 -10 -10 -9 -10 -10 -10 -9 -9 -9 -9 -9 -9 -9 -10 -11 -11
-11 -11 -11 -11 -12 -13 -13 -13 -13 -9 -11 -10 -10 -10 -10 -10 -10 -9 -9 -9 -9 -9 -9 -9 -10 -10 -9 -10 -9 -10 -10 -10 -10 -10 -10 -10 -9 -10 -10 -10 -10 -10 -11 -11 -11 -10 -9 -9 -10
-12 -12 -12 -12 -13 -13 -13 -12 -12 -9 -10 -11 -11 -10 -10 -10 -10 -10 -10 -9 -8 -8 -9 -9 -10 -10 -10 -10 -10 -9 -10 -10 -10 -11 -11 -10 -9 -9 -10 -10 -11 -12 -12 -12 -12 -12 -11 -11 -11
-12 -12 -12 -12 -12 -12 -12 -12 -12 -11 -11 -11 -11 -11 -11 -10 -10 -10 -10 -9 -9 -8 -8 -9 -10 -10 -10 -10 -10 -10 -9 -9 -9 -10 -10 -10 -10 -9 -10 -11 -10 -11 -11 -12 -12 -12 -13 -13 -13
-12 -12 -12 -12 -12 -12 -13 -12 -12 -11 -11 -11 -11 -10 -11 -11 -11 -10 -10 -9 -9 -9 -9 -10 -9 -9 -11 -10 -11 -11 -11 -11 -10 -10 -10 -10 -10 -10 -10 -10 -10 -10 -10 -12 -13 -13 -14 -14 -12
-12 -12 -12 -13 -11 -11 -11 -11 -11 -11 -11 -12 -12 -12 -12 -12 -10 -10 -11 -10 -9 -10 -10 -10 -9 -9 -10 -10 -11 -11 -11 -11 -10 -10 -10 -10 -9 -9 -10 -10 -11 -11 -13 -11 -11 -10 -12 -14 -13
-12 -12 -13 -12 -12 -11 -11 -11 -11 -12 -12 -13 -14 -14 -14 -14 -13 -11 -10 -10 -11 -11 -10 -10 -10 -10 -10 -11 -11 -11 -10 -10 -10 -10 -9 -10 -10 -9 -9 -10 -11 -11 -11 -10 -11 -8 -11 -13 -12
-15 -15 -14 -13 -13 -12 -12 -12 -13 -13 -14 -13 -13 -12 -13 -14 -13 -13 -12 -11 -12 -11 -11 -11 -10 -10 -10 -10 -10 -11 -10 -10 -10 -10 -10 -10 -10 -10 -9 -10 -9 -9 -10 -11 -12 -10 -11 -11 -12
-15 -15 -15 -14 -14 -14 -15 -13 -12 -14 -13 -13 -14 -13 -13 -13 -13 -13 -12 -13 -13 -12 -12 -11 -11 -11 -11 -10 -10 -9 -9 -10 -10 -10 -10 -10 -9 -9 -10 -10 -10 -10 -10 -11 -12 -12 -12 -11 -9
-15 -15 -16 -15 -14 -13 -12 -12 -14 -14 -13 -13 -13 -13 -13 -13 -13 -13 -13 -13 -12 -13 -12 -11 -11 -10 -10 -11 -11 -10 -10 -10 -10 -10 -10 -10 -10 -10 -10 -10 -10 -10 -10 -10 -11 -10 -12 -12 -11
-15 -15 -16 -16 -14 -14 -13 -14 -15 -15 -14 -13 -14 -14 -13 -14 -14 -14 -13 -13 -13 -12 -12 -12 -12 -10 -10 -10 -11 -10 -10 -11 -11 -11 -11 -11 -11 -10 -10 -11 -11 -11 -11 -11 -10 -10 -10 -12 -12
-16 -16 -16 -16 -15 -15 -14 -14 -14 -15 -14 -14 -14 -14 -14 -14 -14 -13 -13 -13 -13 -13 -13 -12 -12 -11 -11 -10 -11 -11 -11 -11 -12 -12 -12 -12 -11 -11 -11 -11 -11 -12 -11 -11 -11 -11 -12 -12 -13
-15 -16 -16 -16 -15 -15 -15 -13 -15 -15 -15 -14 -14 -14 -14 -15 -15 -15 -14 -14 -14 -14 -13 -12 -13 -12 -12 -11 -11 -12 -12 -12 -12 -13 -13 -13 -13 -13 -13 -13 -13 -13 -13 -13 -13 -12 -12 -13 -13

GFSSGP_500_temp_111.txt.gz
Temp
-7 -7 -7 -7 -6 -6 -8 -8 -8 -9 -8 -8 -8 -8 -8 -7 -7 -7 -7 -6 -6 -5 -5 -5 -5 -5 -5 -6 -6 -6 -6 -6 -6 -6 -6 -6 -5 -5 -5 -5 -5 -5 -5 -5 -5 -5 -5 -5 -5
-8 -7 -7 -7 -6 -6 -8 -8 -8 -8 -8 -8 -8 -7 -8 -8 -7 -7 -7 -7 -6 -6 -6 -6 -5 -5 -5 -6 -6 -6 -6 -6 -6 -6 -6 -6 -6 -6 -6 -5 -5 -5 -5 -5 -5 -5 -5 -5 -5
-8 -8 -7 -6 -6 -6 -7 -8 -8 -8 -8 -6 -7 -7 -8 -7 -7 -7 -7 -7 -6 -6 -6 -5 -5 -6 -6 -6 -6 -6 -6 -6 -6 -6 -6 -6 -6 -6 -6 -6 -6 -5 -5 -5 -5 -6 -5 -5 -5
-8 -8 -7 -6 -7 -7 -8 -7 -7 -8 -8 -8 -6 -6 -7 -6 -6 -6 -6 -6 -6 -6 -6 -6 -6 -6 -6 -6 -6 -6 -6 -6 -6 -6 -6 -6 -6 -6 -6 -6 -6 -6 -6 -6 -6 -6 -6 -6 -6
-8 -7 -7 -7 -7 -8 -9 -7 -7 -8 -8 -8 -7 -6 -6 -6 -6 -6 -6 -7 -6 -6 -5 -6 -6 -6 -6 -6 -6 -6 -6 -6 -6 -6 -7 -6 -7 -7 -7 -7 -7 -7 -7 -7 -7 -7 -7 -7 -6
-8 -7 -7 -7 -8 -8 -9 -8 -7 -7 -7 -7 -6 -6 -5 -6 -6 -6 -6 -7 -6 -6 -6 -6 -6 -6 -6 -6 -6 -6 -6 -6 -7 -7 -7 -7 -7 -7 -8 -8 -8 -8 -8 -8 -7 -7 -7 -8 -8
-7 -7 -6 -7 -9 -8 -9 -8 -7 -7 -7 -7 -6 -5 -5 -5 -5 -5 -7 -7 -6 -6 -6 -6 -6 -7 -6 -6 -6 -6 -7 -7 -7 -7 -7 -7 -8 -8 -8 -8 -8 -8 -8 -8 -8 -8 -8 -8 -8
-8 -7 -6 -7 -9 -8 -9 -8 -8 -8 -8 -7 -7 -6 -6 -6 -5 -5 -6 -6 -6 -7 -7 -7 -7 -7 -7 -7 -7 -7 -7 -7 -7 -7 -8 -8 -8 -8 -9 -9 -9 -9 -9 -9 -9 -9 -9 -9 -9
-9 -7 -7 -8 -9 -9 -8 -8 -8 -8 -8 -8 -7 -7 -6 -5 -5 -5 -6 -7 -7 -7 -7 -7 -7 -7 -7 -7 -8 -8 -7 -7 -7 -8 -8 -8 -9 -9 -9 -9 -9 -9 -10 -10 -10 -10 -9 -9 -9
-9 -8 -8 -9 -9 -9 -9 -8 -9 -9 -8 -8 -8 -7 -6 -6 -5 -5 -6 -6 -7 -8 -7 -7 -7 -7 -8 -8 -8 -8 -8 -8 -8 -9 -9 -9 -10 -9 -9 -10 -10 -9 -9 -10 -10 -10 -10 -10 -10
-9 -8 -9 -9 -9 -9 -9 -8 -9 -9 -9 -8 -8 -8 -7 -7 -5 -5 -6 -6 -6 -7 -7 -7 -7 -7 -7 -7 -8 -8 -8 -9 -9 -9 -9 -9 -10 -9 -9 -10 -10 -10 -10 -9 -10 -11 -10 -11 -11
-9 -8 -10 -10 -9 -8 -9 -9 -8 -9 -9 -9 -9 -8 -7 -7 -7 -7 -7 -7 -7 -6 -6 -6 -7 -7 -7 -7 -8 -8 -8 -8 -9 -9 -9 -9 -9 -10 -10 -10 -10 -10 -10 -10 -10 -11 -11 -11 -11
-9 -9 -10 -11 -9 -9 -9 -8 -8 -8 -9 -9 -8 -8 -8 -8 -8 -7 -8 -8 -8 -7 -6 -7 -7 -7 -7 -7 -7 -7 -8 -9 -9 -9 -9 -10 -10 -10 -10 -10 -11 -11 -11 -11 -11 -10 -11 -11 -11
-9 -10 -9 -9 -9 -9 -9 -9 -8 -8 -9 -9 -9 -9 -8 -8 -8 -7 -7 -8 -7 -7 -7 -7 -7 -7 -7 -7 -8 -8 -8 -9 -9 -9 -10 -10 -10 -10 -11 -10 -11 -11 -11 -11 -11 -11 -11 -11 -11
-9 -9 -9 -9 -9 -9 -9 -8 -8 -8 -8 -8 -8 -8 -8 -8 -8 -8 -8 -8 -8 -7 -7 -8 -8 -8 -7 -7 -8 -8 -8 -9 -9 -10 -10 -10 -11 -11 -11 -11 -10 -11 -11 -11 -11 -11 -11 -12 -12
-9 -9 -9 -9 -10 -9 -9 -8 -8 -9 -9 -9 -9 -10 -10 -10 -9 -9 -8 -8 -8 -8 -7 -8 -8 -8 -9 -9 -9 -8 -8 -9 -9 -11 -11 -11 -11 -11 -11 -11 -11 -11 -11 -11 -12 -12 -12 -12 -12
-10 -10 -10 -10 -11 -11 -10 -8 -9 -10 -9 -9 -8 -9 -9 -10 -10 -10 -9 -9 -8 -8 -8 -8 -8 -9 -9 -9 -9 -9 -9 -9 -9 -10 -11 -11 -11 -11 -11 -11 -11 -11 -11 -12 -12 -12 -12 -12 -12
-11 -11 -11 -11 -12 -11 -10 -9 -9 -9 -8 -8 -9 -9 -9 -9 -9 -9 -9 -9 -9 -9 -9 -9 -9 -9 -9 -9 -9 -10 -10 -10 -10 -10 -10 -10 -11 -11 -11 -11 -11 -11 -11 -11 -12 -11 -12 -11 -11
-12 -11 -11 -12 -12 -11 -10 -9 -9 -10 -9 -9 -9 -8 -8 -9 -9 -9 -9 -9 -9 -9 -9 -9 -9 -9 -9 -9 -10 -10 -10 -11 -10 -10 -10 -10 -10 -11 -11 -10 -11 -11 -11 -11 -12 -12 -11 -11 -12
-11 -11 -11 -11 -12 -11 -10 -10 -9 -9 -9 -9 -9 -9 -9 -9 -9 -9 -9 -8 -9 -9 -9 -9 -10 -10 -10 -10 -11 -11 -11 -11 -12 -11 -11 -11 -11 -11 -11 -11 -11 -11 -11 -11 -12 -12 -12 -12 -12
-11 -11 -11 -11 -12 -11 -11 -10 -10 -10 -10 -9 -9 -10 -10 -9 -9 -9 -9 -9 -9 -9 -9 -10 -10 -10 -10 -10 -11 -11 -10 -10 -11 -11 -11 -10 -10 -10 -10 -10 -11 -11 -11 -11 -12 -12 -11 -11 -11
-11 -11 -11 -11 -11 -11 -11 -10 -11 -11 -11 -10 -10 -10 -10 -11 -11 -10 -10 -9 -9 -10 -10 -10 -10 -10 -11 -11 -11 -11 -12 -12 -11 -11 -11 -11 -11 -11 -11 -10 -10 -10 -10 -11 -11 -11 -11 -11 -11
-11 -12 -11 -11 -11 -11 -11 -11 -10 -11 -11 -11 -11 -11 -10 -10 -9 -9 -9 -10 -10 -10 -10 -10 -10 -11 -11 -11 -11 -12 -12 -12 -12 -12 -11 -11 -10 -10 -10 -10 -11 -11 -11 -11 -11 -11 -11 -11 -11
-12 -12 -12 -12 -12 -11 -12 -12 -11 -11 -11 -12 -12 -11 -9 -9 -10 -10 -10 -10 -10 -10 -10 -10 -11 -12 -12 -13 -13 -12 -12 -12 -12 -12 -12 -12 -12 -11 -10 -10 -9 -10 -10 -10 -10 -11 -11 -11 -11
-13 -13 -13 -13 -12 -12 -12 -11 -11 -11 -12 -12 -12 -11 -11 -11 -11 -11 -11 -11 -12 -12 -11 -11 -12 -12 -12 -12 -12 -12 -12 -12 -12 -12 -11 -11 -12 -12 -11 -10 -9 -9 -10 -10 -10 -10 -10 -10 -10
-14 -14 -14 -13 -12 -12 -12 -12 -11 -11 -12 -12 -12 -11 -11 -11 -11 -11 -12 -12 -12 -12 -13 -13 -14 -13 -12 -12 -13 -13 -13 -13 -12 -12 -12 -11 -11 -11 -11 -11 -10 -9 -9 -9 -9 -9 -9 -10 -10
-15 -15 -15 -14 -13 -13 -13 -13 -13 -13 -13 -13 -13 -13 -13 -13 -12 -13 -13 -13 -13 -13 -12 -12 -13 -13 -14 -13 -13 -13 -13 -13 -13 -13 -13 -12 -11 -11 -11 -11 -10 -10 -10 -9 -9 -9 -9 -9 -9
-15 -15 -15 -15 -15 -15 -14 -13 -13 -14 -15 -14 -14 -15 -15 -14 -14 -13 -13 -13 -13 -13 -14 -14 -14 -14 -14 -14 -13 -12 -12 -13 -13 -13 -14 -13 -12 -11 -11 -10 -10 -10 -10 -10 -10 -9 -9 -9 -10
-15 -15 -15 -15 -15 -14 -14 -13 -13 -14 -14 -15 -15 -15 -14 -14 -14 -14 -14 -14 -14 -14 -14 -14 -14 -14 -13 -13 -12 -13 -13 -14 -14 -14 -14 -14 -13 -12 -11 -11 -11 -10 -10 -10 -10 -10 -10 -9 -10
-15 -15 -15 -15 -14 -14 -14 -13 -14 -14 -15 -15 -15 -15 -14 -15 -14 -14 -14 -15 -15 -15 -14 -14 -14 -14 -14 -13 -13 -14 -14 -14 -14 -13 -13 -14 -14 -13 -12 -12 -11 -11 -11 -11 -11 -11 -11 -10 -10

GFSSGP_500_temp_114.txt.gz
Temp
-7 -7 -7 -7 -7 -7 -7 -8 -9 -8 -8 -7 -7 -7 -7 -7 -7 -7 -7 -7 -7 -6 -6 -6 -5 -5 -6 -5 -5 -5 -5 -5 -5 -6 -6 -6 -6 -6 -6 -6 -6 -6 -5 -6 -6 -6 -6 -6 -6
-7 -7 -7 -7 -7 -7 -7 -9 -9 -8 -8 -8 -7 -7 -6 -7 -7 -7 -7 -7 -6 -6 -6 -6 -6 -5 -5 -5 -6 -6 -6 -6 -6 -6 -6 -6 -6 -6 -6 -6 -6 -6 -6 -6 -6 -6 -6 -6 -6
-7 -7 -7 -7 -7 -7 -7 -9 -9 -9 -8 -8 -8 -6 -6 -6 -6 -6 -7 -6 -6 -6 -6 -6 -6 -6 -5 -5 -5 -6 -6 -6 -6 -6 -6 -6 -6 -6 -6 -6 -6 -6 -6 -6 -6 -6 -6 -6 -6
-7 -7 -7 -7 -7 -7 -8 -9 -9 -9 -7 -7 -8 -7 -6 -6 -6 -6 -6 -6 -6 -6 -5 -6 -6 -6 -6 -6 -6 -6 -6 -6 -6 -6 -6 -6 -7 -7 -7 -7 -7 -7 -7 -7 -7 -7 -7 -7 -7
-7 -7 -7 -7 -7 -8 -9 -8 -8 -9 -8 -7 -7 -7 -7 -7 -6 -6 -7 -7 -7 -7 -6 -6 -6 -6 -6 -6 -6 -6 -6 -6 -6 -6 -6 -6 -6 -7 -7 -7 -8 -8 -7 -7 -7 -8 -8 -8 -8
-8 -7 -6 -6 -8 -8 -8 -8 -8 -8 -7 -7 -6 -6 -6 -7 -6 -6 -6 -7 -7 -7 -7 -6 -6 -6 -6 -6 -6 -6 -6 -6 -6 -6 -7 -7 -7 -7 -8 -8 -8 -8 -8 -8 -8 -8 -8 -9 -9
-8 -7 -6 -7 -8 -8 -8 -8 -8 -8 -7 -7 -7 -6 -6 -6 -6 -6 -6 -7 -7 -7 -7 -7 -7 -7 -7 -6 -6 -7 -7 -7 -7 -7 -7 -7 -8 -8 -8 -9 -9 -9 -9 -9 -9 -9 -9 -9 -9
-8 -7 -6 -7 -8 -8 -8 -8 -8 -8 -8 -7 -7 -6 -7 -7 -6 -5 -6 -6 -7 -7 -7 -6 -7 -7 -7 -7 -7 -7 -7 -7 -7 -7 -7 -8 -8 -8 -9 -9 -9 -9 -10 -10 -10 -10 -10 -10 -9
-8 -7 -6 -7 -8 -9 -9 -8 -8 -9 -8 -7 -7 -7 -7 -6 -6 -6 -6 -7 -7 -7 -7 -7 -7 -7 -7 -7 -7 -7 -7 -8 -8 -8 -8 -8 -8 -9 -9 -10 -10 -10 -10 -10 -10 -10 -10 -10 -10
-9 -7 -7 -8 -9 -9 -9 -8 -8 -8 -8 -7 -7 -6 -6 -6 -6 -7 -7 -7 -7 -7 -7 -7 -7 -7 -7 -7 -7 -7 -8 -8 -8 -8 -8 -9 -9 -10 -10 -10 -9 -10 -9 -10 -10 -10 -10 -11 -11
-9 -8 -9 -10 -10 -9 -8 -8 -8 -8 -9 -7 -7 -7 -7 -6 -6 -7 -7 -7 -7 -7 -7 -7 -7 -7 -7 -7 -7 -7 -8 -8 -8 -9 -9 -9 -9 -10 -10 -10 -10 -10 -9 -10 -10 -10 -10 -10 -11
-9 -9 -9 -9 -10 -9 -9 -8 -8 -9 -9 -9 -8 -7 -7 -7 -7 -7 -7 -7 -7 -7 -7 -7 -7 -7 -7 -7 -7 -7 -8 -8 -9 -9 -9 -9 -10 -10 -10 -10 -10 -10 -10 -10 -10 -10 -10 -10 -10
-10 -10 -9 -10 -9 -9 -9 -8 -9 -9 -9 -9 -9 -9 -8 -8 -7 -7 -7 -6 -6 -7 -6 -6 -6 -6 -7 -7 -7 -7 -8 -8 -9 -9 -10 -10 -10 -10 -10 -10 -10 -10 -10 -11 -11 -11 -11 -11 -11
-12 -11 -10 -9 -9 -9 -9 -9 -9 -9 -9 -9 -9 -8 -8 -8 -7 -7 -6 -6 -7 -6 -7 -7 -7 -7 -7 -7 -7 -8 -8 -8 -8 -9 -9 -10 -10 -10 -10 -11 -11 -11 -11 -11 -11 -11 -11 -11 -11
-10 -10 -11 -10 -9 -9 -9 -8 -8 -8 -9 -9 -10 -9 -8 -8 -8 -8 -8 -7 -7 -7 -7 -7 -7 -7 -7 -8 -8 -8 -8 -9 -9 -9 -10 -10 -11 -11 -10 -11 -11 -12 -11 -11 -11 -11 -11 -11 -11
-10 -10 -10 -10 -10 -9 -9 -8 -9 -10 -9 -9 -9 -8 -8 -8 -8 -8 -7 -8 -8 -7 -8 -8 -8 -9 -9 -9 -9 -8 -9 -9 -9 -9 -10 -10 -11 -11 -11 -11 -11 -11 -11 -11 -11 -11 -11 -11 -11
-10 -10 -10 -11 -10 -10 -10 -9 -9 -9 -9 -9 -8 -8 -9 -9 -9 -9 -9 -8 -8 -8 -7 -7 -8 -8 -9 -9 -10 -9 -9 -9 -10 -10 -10 -10 -11 -11 -11 -11 -11 -11 -11 -12 -11 -12 -11 -11 -11
-10 -11 -11 -11 -11 -10 -9 -9 -9 -10 -9 -8 -8 -9 -9 -9 -8 -8 -8 -8 -8 -8 -8 -9 -9 -9 -9 -9 -9 -10 -10 -10 -10 -10 -10 -10 -10 -10 -10 -10 -11 -11 -11 -11 -12 -12 -12 -12 -12
-12 -11 -11 -11 -11 -10 -9 -9 -9 -9 -9 -9 -8 -9 -9 -9 -9 -9 -9 -9 -9 -9 -9 -9 -9 -9 -10 -10 -10 -10 -10 -11 -11 -11 -10 -10 -10 -9 -10 -11 -11 -11 -11 -11 -11 -11 -12 -11 -12
-12 -11 -11 -12 -12 -10 -10 -9 -9 -9 -9 -9 -10 -10 -9 -9 -9 -10 -10 -9 -9 -9 -9 -10 -10 -10 -10 -10 -10 -10 -10 -10 -11 -11 -10 -10 -10 -10 -10 -11 -11 -11 -11 -11 -11 -11 -11 -11 -11
-12 -12 -12 -12 -12 -11 -10 -10 -10 -10 -10 -11 -11 -10 -10 -10 -10 -10 -10 -10 -9 -10 -10 -10 -10 -10 -10 -10 -11 -11 -11 -11 -11 -11 -11 -11 -11 -11 -11 -11 -11 -11 -11 -11 -11 -11 -12 -12 -11
-12 -12 -12 -12 -12 -11 -11 -10 -10 -10 -10 -10 -10 -10 -10 -10 -10 -10 -9 -9 -9 -10 -10 -10 -11 -11 -11 -11 -11 -11 -11 -11 -11 -11 -11 -11 -11 -11 -11 -10 -10 -10 -11 -11 -11 -11 -11 -11 -11
-11 -12 -11 -11 -11 -11 -11 -10 -10 -10 -10 -11 -10 -10 -10 -10 -10 -9 -9 -9 -10 -10 -10 -10 -10 -11 -11 -11 -11 -11 -12 -12 -12 -12 -12 -12 -12 -12 -11 -11 -10 -10 -10 -11 -11 -11 -11 -11 -11
-13 -13 -13 -12 -12 -11 -12 -11 -10 -10 -11 -11 -12 -11 -10 -10 -10 -10 -10 -10 -10 -10 -10 -10 -11 -11 -11 -12 -12 -12 -12 -12 -12 -12 -13 -13 -13 -12 -12 -12 -11 -10 -10 -10 -10 -10 -11 -11 -11
-13 -13 -13 -13 -12 -12 -12 -12 -11 -12 -11 -11 -12 -12 -11 -11 -11 -10 -10 -11 -11 -11 -11 -11 -12 -12 -12 -12 -13 -13 -13 -12 -13 -13 -13 -14 -13 -12 -12 -12 -11 -11 -11 -10 -10 -10 -10 -10 -10
-14 -13 -13 -14 -13 -13 -13 -11 -11 -12 -12 -12 -12 -12 -12 -11 -11 -11 -11 -11 -11 -12 -13 -13 -13 -13 -13 -13 -12 -12 -12 -13 -13 -13 -13 -13 -12 -12 -12 -12 -11 -10 -11 -11 -10 -10 -10 -10 -10
-14 -14 -14 -14 -13 -13 -13 -12 -12 -12 -13 -12 -12 -12 -12 -12 -12 -12 -12 -12 -12 -13 -13 -14 -14 -14 -13 -13 -13 -14 -14 -13 -12 -13 -13 -13 -13 -12 -12 -11 -11 -11 -11 -11 -11 -11 -10 -10 -10
-15 -15 -15 -14 -14 -13 -13 -13 -13 -13 -13 -13 -12 -12 -12 -12 -12 -12 -12 -12 -13 -13 -14 -14 -14 -14 -14 -14 -14 -14 -14 -14 -14 -14 -14 -14 -14 -13 -13 -13 -12 -11 -11 -11 -11 -11 -11 -11 -10
-15 -15 -15 -15 -14 -14 -14 -13 -13 -13 -14 -14 -14 -14 -13 -13 -13 -12 -12 -13 -13 -13 -14 -14 -14 -14 -14 -15 -14 -14 -14 -14 -14 -15 -14 -14 -14 -13 -13 -13 -13 -13 -12 -11 -11 -11 -11 -11 -11
-16 -15 -15 -15 -15 -15 -14 -13 -14 -14 -14 -14 -14 -14 -14 -14 -14 -14 -14 -14 -14 -14 -14 -14 -14 -15 -15 -15 -15 -15 -15 -15 -15 -14 -14 -13 -13 -13 -13 -14 -14 -13 -13 -13 -12 -12 -12 -11 -11

GFSSGP_500_temp_117.txt.gz
Temp
-8 -7 -7 -7 -7 -7 -8 -9 -8 -8 -7 -7 -7 -6 -6 -6 -7 -7 -7 -7 -6 -6 -6 -6 -6 -6 -5 -5 -5 -5 -5 -5 -5 -5 -6 -6 -6 -6 -5 -5 -5 -5 -5 -5 -5 -5 -5 -6 -6
-8 -7 -7 -7 -7 -7 -8 -9 -8 -9 -8 -7 -7 -7 -6 -6 -6 -6 -6 -7 -6 -6 -6 -6 -6 -6 -6 -5 -6 -6 -6 -6 -6 -6 -6 -6 -6 -6 -6 -6 -6 -6 -6 -6 -6 -6 -6 -7 -7
-8 -8 -7 -7 -7 -7 -8 -8 -8 -9 -9 -8 -8 -7 -7 -6 -6 -5 -5 -6 -6 -6 -6 -5 -6 -6 -6 -6 -6 -6 -6 -6 -6 -6 -6 -6 -6 -6 -6 -6 -6 -6 -6 -6 -7 -7 -7 -7 -7
-8 -8 -7 -7 -7 -7 -8 -9 -8 -9 -8 -9 -8 -7 -7 -7 -6 -5 -6 -6 -6 -6 -6 -6 -6 -6 -6 -6 -6 -6 -6 -6 -6 -6 -6 -6 -6 -7 -7 -7 -7 -7 -7 -7 -7 -7 -8 -8 -8
-9 -8 -8 -7 -7 -7 -8 -9 -8 -9 -8 -9 -8 -8 -7 -7 -7 -6 -6 -6 -7 -7 -6 -6 -6 -6 -6 -6 -6 -6 -6 -6 -6 -6 -6 -6 -6 -6 -7 -7 -7 -7 -8 -8 -8 -8 -8 -8 -8
-9 -8 -8 -7 -7 -8 -8 -9 -8 -8 -8 -8 -8 -8 -7 -7 -6 -6 -6 -7 -7 -6 -7 -6 -7 -6 -6 -6 -6 -6 -6 -6 -6 -6 -6 -7 -7 -7 -8 -8 -8 -8 -8 -8 -8 -9 -9 -9 -9
-9 -8 -7 -8 -8 -8 -8 -9 -8 -8 -8 -7 -8 -7 -7 -7 -7 -6 -6 -7 -7 -7 -7 -6 -7 -6 -6 -6 -6 -6 -6 -7 -7 -7 -7 -7 -7 -8 -8 -9 -9 -9 -9 -9 -9 -9 -10 -10 -10
-9 -8 -7 -8 -8 -8 -8 -8 -8 -8 -8 -8 -7 -7 -7 -7 -7 -7 -7 -7 -7 -7 -7 -7 -7 -7 -7 -7 -7 -7 -7 -7 -7 -7 -8 -8 -8 -8 -8 -9 -9 -9 -9 -10 -10 -9 -10 -10 -10
-9 -8 -7 -8 -9 -8 -8 -8 -8 -8 -8 -7 -8 -7 -7 -7 -7 -7 -7 -7 -6 -7 -7 -7 -7 -7 -7 -7 -7 -7 -7 -7 -8 -8 -8 -8 -8 -8 -8 -9 -9 -10 -9 -9 -9 -10 -10 -10 -10
-9 -8 -7 -8 -9 -8 -8 -8 -8 -8 -7 -7 -8 -8 -7 -7 -7 -7 -7 -7 -7 -7 -7 -7 -7 -7 -7 -7 -7 -7 -7 -7 -7 -8 -8 -8 -8 -8 -9 -9 -9 -10 -10 -10 -9 -9 -10 -10 -9
-9 -8 -9 -9 -9 -9 -8 -8 -8 -8 -7 -7 -7 -7 -7 -7 -7 -7 -7 -7 -7 -7 -8 -7 -7 -7 -7 -7 -7 -8 -8 -8 -8 -8 -8 -9 -9 -9 -9 -9 -9 -9 -10 -10 -10 -10 -10 -11 -10
-10 -9 -9 -9 -9 -9 -9 -8 -9 -8 -8 -7 -6 -6 -7 -7 -7 -7 -7 -8 -8 -8 -8 -8 -8 -8 -8 -8 -7 -7 -8 -8 -8 -8 -8 -9 -9 -9 -10 -10 -10 -10 -10 -10 -10 -10 -10 -10 -10
-9 -9 -9 -9 -9 -8 -7 -8 -8 -8 -9 -8 -7 -7 -6 -6 -7 -7 -8 -8 -8 -8 -8 -8 -8 -7 -7 -8 -8 -8 -8 -8 -8 -8 -8 -9 -10 -10 -10 -10 -10 -10 -10 -10 -10 -10 -10 -10 -10
-10 -9 -9 -9 -10 -9 -9 -9 -8 -8 -9 -8 -7 -7 -7 -8 -8 -8 -8 -8 -8 -7 -7 -7 -7 -7 -7 -7 -7 -7 -8 -8 -8 -8 -9 -9 -10 -10 -10 -11 -11 -11 -11 -11 -11 -11 -11 -11 -11
-12 -11 -10 -10 -9 -9 -10 -9 -8 -10 -9 -9 -8 -8 -8 -8 -8 -8 -8 -8 -7 -7 -7 -7 -7 -7 -7 -7 -7 -7 -7 -7 -8 -8 -9 -9 -10 -10 -10 -10 -11 -11 -11 -11 -10 -11 -11 -11 -11
-13 -12 -11 -10 -10 -10 -10 -9 -10 -10 -9 -9 -10 -9 -8 -8 -8 -7 -7 -7 -7 -7 -7 -6 -7 -7 -7 -7 -8 -8 -8 -8 -8 -9 -9 -9 -10 -10 -10 -11 -11 -10 -10 -11 -11 -11 -11 -12 -12
-10 -10 -10 -11 -12 -11 -11 -10 -11 -10 -10 -9 -9 -9 -9 -9 -8 -8 -8 -8 -8 -7 -7 -7 -7 -7 -7 -8 -9 -9 -9 -9 -9 -9 -9 -9 -10 -10 -10 -10 -11 -10 -11 -11 -11 -11 -11 -11 -11
-9 -10 -11 -12 -13 -13 -11 -11 -12 -11 -10 -9 -9 -9 -8 -8 -9 -9 -9 -8 -8 -8 -8 -8 -8 -8 -9 -9 -9 -9 -9 -9 -9 -9 -10 -9 -10 -10 -10 -10 -10 -10 -10 -10 -11 -11 -11 -11 -11
-12 -12 -12 -13 -12 -11 -10 -10 -10 -9 -9 -9 -9 -9 -9 -9 -9 -9 -8 -8 -9 -9 -9 -9 -9 -9 -9 -9 -9 -9 -9 -9 -9 -10 -10 -10 -10 -9 -9 -9 -9 -9 -10 -11 -11 -11 -11 -11 -11
-13 -12 -12 -12 -12 -11 -11 -10 -10 -10 -10 -10 -9 -10 -10 -9 -10 -10 -9 -9 -9 -9 -10 -9 -10 -10 -9 -9 -9 -9 -10 -10 -10 -10 -10 -10 -10 -10 -10 -10 -10 -11 -11 -11 -11 -11 -11 -11 -11
-13 -12 -12 -12 -12 -12 -11 -10 -11 -11 -10 -10 -10 -10 -10 -10 -10 -10 -10 -10 -10 -10 -10 -10 -10 -10 -10 -10 -10 -10 -10 -10 -10 -11 -11 -11 -11 -11 -11 -11 -11 -11 -11 -11 -11 -11 -11 -11 -11
-13 -13 -13 -12 -12 -12 -11 -11 -11 -11 -11 -11 -11 -11 -10 -10 -10 -10 -10 -10 -10 -10 -10 -10 -10 -11 -11 -11 -11 -11 -11 -11 -11 -11 -11 -11 -11 -11 -11 -11 -11 -11 -11 -11 -11 -11 -11 -11 -11
-12 -12 -12 -12 -12 -12 -11 -11 -10 -10 -10 -10 -10 -10 -10 -10 -10 -10 -10 -10 -11 -11 -11 -11 -12 -12 -12 -12 -12 -12 -12 -12 -12 -12 -12 -11 -11 -11 -12 -12 -11 -11 -10 -10 -10 -11 -11 -11 -11
-13 -13 -12 -12 -12 -11 -11 -11 -10 -10 -10 -10 -11 -11 -11 -11 -11 -11 -10 -10 -10 -11 -12 -12 -11 -12 -12 -12 -13 -12 -12 -12 -12 -12 -12 -12 -12 -13 -12 -12 -11 -11 -11 -11 -10 -11 -10 -11 -10
-13 -13 -13 -13 -12 -11 -11 -11 -11 -11 -11 -11 -11 -12 -12 -11 -10 -10 -10 -10 -10 -11 -12 -12 -12 -12 -12 -13 -13 -13 -13 -12 -12 -12 -13 -13 -13 -13 -12 -12 -12 -11 -12 -12 -12 -12 -11 -11 -11
-13 -13 -13 -13 -12 -12 -12 -11 -11 -11 -11 -12 -12 -12 -12 -11 -11 -11 -11 -11 -11 -11 -11 -11 -12 -12 -13 -13 -13 -13 -13 -12 -12 -13 -13 -13 -13 -13 -12 -12 -12 -12 -11 -11 -12 -11 -11 -11 -11
-14 -14 -14 -14 -13 -13 -12 -11 -12 -12 -12 -12 -12 -12 -12 -11 -11 -11 -11 -11 -11 -11 -11 -11 -11 -12 -12 -12 -12 -13 -13 -13 -13 -13 -14 -14 -14 -13 -12 -12 -12 -12 -12 -11 -11 -10 -10 -11 -10
-14 -15 -14 -14 -13 -13 -12 -12 -12 -13 -13 -13 -12 -12 -11 -11 -11 -11 -12 -12 -11 -11 -11 -12 -12 -13 -13 -14 -14 -14 -14 -14 -14 -14 -14 -14 -14 -13 -13 -13 -12 -13 -13 -12 -12 -12 -11 -10 -10
-15 -15 -14 -15 -14 -14 -13 -13 -13 -14 -14 -14 -13 -12 -12 -12 -11 -12 -12 -12 -12 -12 -12 -13 -13 -14 -14 -14 -15 -15 -14 -14 -14 -14 -14 -14 -14 -14 -13 -14 -13 -13 -13 -13 -12 -12 -12 -11 -11
-15 -16 -16 -16 -15 -15 -14 -14 -14 -14 -14 -14 -13 -13 -13 -13 -13 -12 -13 -13 -13 -13 -13 -14 -14 -14 -14 -15 -15 -15 -14 -15 -15 -14 -15 -14 -14 -14 -14 -14 -14 -14 -13 -13 -13 -13 -13 -12 -12

GFSSGP_500_temp_123.txt.gz
Temp
-7 -7 -7 -7 -7 -7 -7 -7 -6 -8 -7 -7 -6 -6 -7 -6 -5 -4 -6 -6 -6 -6 -6 -5 -5 -5 -5 -5 -5 -5 -4 -4 -4 -4 -4 -4 -4 -4 -4 -4 -4 -4 -4 -4 -4 -4 -5 -5 -5
-8 -8 -7 -7 -7 -7 -7 -8 -7 -8 -8 -6 -6 -6 -6 -5 -6 -5 -5 -6 -6 -6 -6 -6 -6 -5 -5 -5 -5 -5 -5 -4 -4 -4 -4 -4 -4 -4 -4 -4 -4 -4 -5 -5 -5 -5 -5 -5 -6
-7 -8 -8 -8 -7 -7 -8 -7 -7 -8 -6 -7 -7 -6 -5 -5 -6 -5 -6 -6 -6 -6 -6 -6 -6 -6 -6 -5 -5 -5 -5 -5 -4 -4 -4 -4 -4 -4 -4 -5 -5 -5 -5 -5 -5 -6 -6 -6 -6
-8 -8 -8 -8 -7 -7 -7 -8 -8 -8 -7 -7 -7 -8 -6 -7 -7 -6 -6 -6 -6 -6 -6 -6 -6 -6 -5 -5 -5 -5 -5 -5 -5 -4 -5 -5 -5 -5 -5 -5 -5 -5 -5 -6 -6 -6 -7 -7 -7
-8 -8 -8 -8 -7 -7 -8 -8 -8 -8 -8 -7 -7 -8 -6 -6 -7 -7 -7 -6 -6 -6 -6 -6 -6 -5 -5 -5 -5 -5 -5 -5 -5 -5 -5 -5 -5 -5 -5 -6 -6 -6 -6 -7 -7 -7 -7 -8 -8
-8 -8 -8 -8 -7 -8 -9 -8 -8 -8 -9 -7 -7 -8 -6 -6 -6 -7 -7 -7 -7 -6 -6 -6 -6 -6 -5 -5 -5 -5 -5 -5 -5 -5 -5 -5 -5 -5 -5 -6 -6 -6 -6 -7 -7 -7 -8 -8 -8
-8 -8 -8 -8 -8 -8 -8 -9 -9 -8 -8 -8 -7 -8 -7 -7 -6 -6 -7 -7 -7 -7 -6 -6 -6 -6 -6 -6 -5 -5 -5 -5 -5 -5 -5 -5 -5 -6 -6 -6 -7 -7 -7 -8 -8 -8 -8 -8 -8
-9 -9 -9 -8 -9 -9 -9 -9 -10 -8 -9 -9 -8 -8 -8 -7 -7 -6 -7 -7 -7 -7 -6 -6 -6 -6 -6 -6 -6 -6 -5 -6 -6 -5 -6 -6 -6 -6 -6 -7 -7 -7 -8 -8 -8 -8 -9 -9 -9
-10 -10 -8 -8 -9 -9 -9 -10 -9 -9 -9 -9 -7 -8 -8 -7 -7 -7 -6 -7 -7 -7 -6 -6 -6 -6 -6 -6 -6 -6 -6 -6 -6 -6 -6 -6 -6 -6 -7 -7 -7 -8 -8 -8 -9 -9 -9 -9 -9
-10 -10 -8 -9 -10 -10 -10 -10 -9 -9 -8 -8 -7 -6 -7 -7 -6 -7 -7 -7 -7 -7 -7 -7 -7 -6 -6 -7 -6 -6 -6 -6 -6 -6 -6 -6 -6 -7 -7 -7 -7 -8 -8 -8 -9 -9 -9 -9 -9
-11 -10 -11 -11 -10 -9 -10 -10 -9 -8 -9 -9 -9 -8 -8 -7 -7 -7 -7 -7 -7 -7 -7 -7 -7 -7 -7 -7 -7 -7 -7 -7 -7 -7 -7 -7 -7 -7 -7 -7 -7 -8 -8 -8 -9 -9 -9 -9 -9
-12 -11 -11 -12 -9 -8 -9 -7 -9 -8 -9 -9 -10 -8 -9 -7 -7 -7 -7 -7 -7 -7 -7 -7 -7 -7 -7 -7 -7 -7 -7 -7 -7 -7 -7 -7 -7 -7 -7 -7 -7 -8 -8 -9 -9 -9 -10 -10 -10
-14 -12 -11 -9 -10 -9 -9 -8 -8 -8 -8 -8 -8 -8 -9 -8 -8 -8 -8 -7 -7 -7 -7 -7 -7 -7 -7 -8 -7 -8 -8 -7 -7 -7 -7 -7 -7 -7 -7 -7 -7 -8 -8 -9 -9 -10 -10 -10 -10
-15 -13 -11 -11 -10 -9 -9 -9 -8 -7 -8 -7 -7 -7 -8 -8 -8 -8 -9 -9 -7 -8 -7 -7 -7 -7 -8 -8 -8 -9 -8 -8 -7 -7 -7 -7 -7 -7 -7 -7 -8 -8 -8 -9 -9 -10 -10 -10 -10
-14 -14 -13 -11 -11 -10 -9 -9 -8 -8 -8 -8 -7 -8 -8 -8 -8 -7 -6 -7 -8 -8 -8 -8 -8 -8 -8 -9 -9 -9 -8 -8 -7 -7 -7 -7 -7 -7 -7 -8 -8 -8 -9 -9 -9 -9 -10 -10 -10
-15 -13 -13 -12 -11 -11 -10 -8 -9 -8 -9 -8 -8 -9 -9 -8 -8 -7 -5 -5 -9 -9 -8 -9 -9 -9 -9 -9 -9 -8 -8 -7 -7 -7 -7 -7 -7 -7 -8 -8 -8 -8 -8 -9 -9 -9 -9 -10 -10
-15 -13 -13 -13 -12 -10 -10 -9 -10 -9 -8 -8 -7 -8 -8 -8 -8 -8 -8 -8 -9 -9 -8 -9 -9 -9 -9 -8 -8 -8 -8 -8 -8 -7 -7 -8 -8 -7 -8 -8 -8 -8 -9 -9 -9 -9 -9 -10 -10
-15 -14 -14 -14 -13 -11 -10 -10 -10 -9 -9 -8 -8 -8 -9 -8 -8 -8 -9 -9 -9 -9 -9 -9 -9 -9 -9 -8 -8 -8 -8 -8 -8 -7 -7 -7 -7 -8 -8 -8 -8 -8 -9 -9 -9 -10 -10 -10 -10
-16 -16 -15 -15 -15 -11 -11 -10 -10 -10 -10 -9 -9 -8 -9 -8 -8 -8 -8 -9 -8 -9 -9 -10 -9 -9 -8 -8 -8 -8 -8 -8 -8 -7 -8 -8 -8 -8 -8 -8 -9 -9 -9 -9 -10 -10 -10 -10 -10
-16 -15 -16 -16 -16 -14 -12 -11 -11 -9 -10 -10 -9 -9 -10 -9 -9 -9 -9 -8 -9 -10 -9 -9 -9 -9 -8 -8 -8 -8 -8 -8 -8 -8 -8 -8 -9 -9 -9 -9 -9 -9 -9 -10 -10 -10 -10 -10 -10
-16 -16 -16 -13 -16 -13 -13 -11 -11 -10 -10 -10 -10 -9 -10 -9 -9 -9 -9 -9 -10 -10 -9 -9 -9 -9 -9 -9 -8 -8 -8 -9 -9 -9 -8 -9 -9 -9 -10 -10 -10 -10 -10 -10 -11 -10 -10 -10 -11
-16 -16 -16 -15 -16 -13 -12 -13 -12 -13 -14 -12 -11 -12 -10 -10 -13 -13 -12 -12 -10 -9 -9 -9 -9 -9 -9 -9 -9 -9 -9 -9 -9 -9 -8 -9 -9 -9 -10 -10 -10 -10 -10 -11 -11 -10 -11 -11 -11
-16 -16 -16 -16 -16 -15 -15 -12 -12 -13 -13 -13 -14 -14 -13 -13 -13 -13 -11 -10 -10 -9 -9 -10 -9 -9 -9 -10 -10 -10 -10 -10 -9 -9 -9 -10 -10 -10 -10 -10 -11 -11 -11 -11 -11 -11 -11 -11 -11
-15 -16 -16 -15 -16 -15 -14 -14 -14 -13 -12 -12 -12 -13 -13 -12 -11 -11 -10 -10 -9 -10 -10 -10 -10 -10 -10 -10 -10 -10 -10 -11 -10 -11 -11 -11 -11 -11 -11 -11 -11 -11 -11 -11 -12 -12 -12 -12 -12
-15 -16 -16 -16 -15 -13 -14 -14 -14 -14 -13 -12 -13 -12 -11 -11 -11 -10 -10 -10 -10 -10 -10 -10 -10 -10 -11 -11 -11 -11 -11 -12 -11 -11 -11 -12 -12 -11 -11 -11 -11 -11 -12 -12 -13 -13 -13 -13 -13
-14 -15 -15 -14 -14 -14 -14 -14 -14 -14 -14 -12 -12 -11 -12 -12 -11 -12 -11 -11 -11 -11 -11 -11 -11 -11 -11 -11 -12 -12 -11 -11 -12 -12 -12 -11 -12 -12 -11 -12 -12 -12 -12 -13 -13 -13 -13 -13 -12
-17 -14 -14 -14 -14 -13 -13 -14 -14 -14 -13 -13 -12 -12 -12 -12 -12 -12 -11 -11 -11 -11 -11 -11 -11 -11 -11 -12 -11 -11 -12 -13 -13 -12 -12 -12 -12 -13 -12 -12 -13 -13 -13 -13 -13 -13 -13 -12 -13
-16 -16 -15 -15 -14 -13 -14 -14 -14 -14 -14 -13 -12 -13 -13 -12 -12 -12 -11 -11 -11 -11 -11 -11 -11 -11 -11 -11 -11 -11 -12 -12 -12 -12 -13 -13 -13 -13 -13 -12 -12 -13 -13 -13 -14 -13 -13 -13 -13
-16 -16 -15 -15 -15 -14 -13 -13 -14 -14 -14 -13 -13 -12 -13 -12 -12 -12 -11 -11 -11 -11 -11 -11 -11 -11 -11 -11 -12 -12 -12 -12 -12 -13 -13 -13 -13 -14 -14 -15 -14 -13 -14 -14 -14 -14 -13 -13 -13
-16 -16 -16 -16 -15 -15 -14 -14 -14 -14 -15 -14 -14 -13 -12 -12 -12 -12 -12 -12 -12 -11 -11 -11 -11 -11 -11 -11 -12 -12 -13 -13 -13 -13 -14 -14 -14 -14 -14 -14 -14 -15 -15 -14 -13 -14 -14 -14 -14